Wetterdaten: aktuell Sonntag, 19.05.2019 21:26
Datum Zeit Temp. 2m Temp. 5cm Temp. -10cm Feuchte 2m Luftdruck Regen Wind Richtung Richtung Taupunkt Windchill Windben
19.05.2019 21:26 10,1 C 6,6 C 14,0 C 77 % 1005,1 hPa 0,0 l/m 3,2 km/h (1 Bft) O-NO 67 6,3 C 10,1 C 3,1 km/h (1 Bft)
19.05.2019 21:24 10,0 C 6,8 C 14,1 C 76 % 1005,1 hPa 0,0 l/m 3,4 km/h (1 Bft) O-NO 67 6,0 C 10,0 C 4,6 km/h (1 Bft)
19.05.2019 21:22 10,2 C 6,8 C 14,1 C 76 % 1005,1 hPa 0,0 l/m 2,9 km/h (1 Bft) O-NO 67 6,2 C 10,2 C 5,0 km/h (1 Bft)
19.05.2019 21:20 10,2 C 6,8 C 14,1 C 76 % 1005,1 hPa 0,0 l/m 2,3 km/h (1 Bft) O-NO 67 6,2 C 10,2 C 3,7 km/h (1 Bft)
19.05.2019 21:18 10,3 C 6,9 C 14,1 C 76 % 1005,2 hPa 0,0 l/m 1,9 km/h (1 Bft) O-NO 67 6,3 C 10,3 C 2,7 km/h (1 Bft)
19.05.2019 21:16 10,3 C 6,8 C 14,1 C 76 % 1005,2 hPa 0,0 l/m 1,6 km/h (1 Bft) O-NO 67 6,3 C 10,3 C 5,4 km/h (1 Bft)
19.05.2019 21:14 10,8 C 6,9 C 14,1 C 76 % 1005,2 hPa 0,0 l/m 1,1 km/h (1 Bft) O-NO 67 6,7 C 10,8 C 2,9 km/h (1 Bft)
19.05.2019 21:12 11,0 C 6,9 C 14,1 C 75 % 1005,2 hPa 0,0 l/m 1,0 km/h (0 Bft) NO 45 6,7 C 11,0 C 0,0 km/h (0 Bft)
19.05.2019 21:10 10,9 C 7,1 C 14,1 C 76 % 1005,2 hPa 0,0 l/m 1,1 km/h (1 Bft) NW 315 6,8 C 10,9 C 0,0 km/h (0 Bft)
19.05.2019 21:08 11,0 C 7,3 C 14,2 C 75 % 1005,2 hPa 0,0 l/m 1,4 km/h (1 Bft) O-NO 67 6,7 C 11,0 C 0,0 km/h (0 Bft)
19.05.2019 21:06 11,4 C 7,5 C 14,2 C 75 % 1005,2 hPa 0,0 l/m 1,9 km/h (1 Bft) O-NO 67 7,1 C 11,4 C 5,6 km/h (1 Bft)
19.05.2019 21:04 11,1 C 7,4 C 14,2 C 75 % 1005,2 hPa 0,0 l/m 2,4 km/h (1 Bft) N-NW 337 6,8 C 11,1 C 4,6 km/h (1 Bft)
19.05.2019 21:02 11,8 C 7,4 C 14,2 C 75 % 1005,2 hPa 0,0 l/m 2,3 km/h (1 Bft) O 90 7,5 C 11,8 C 0,0 km/h (0 Bft)
19.05.2019 21:00 11,1 C 7,3 C 14,2 C 76 % 1005,2 hPa 0,0 l/m 2,4 km/h (1 Bft) O-NO 67 7,0 C 11,1 C 2,5 km/h (1 Bft)
19.05.2019 20:58 11,1 C 7,3 C 14,2 C 76 % 1005,3 hPa 0,0 l/m 2,3 km/h (1 Bft) O-NO 67 7,0 C 11,1 C 0,0 km/h (0 Bft)
19.05.2019 20:56 10,9 C 7,3 C 14,2 C 76 % 1005,3 hPa 0,0 l/m 2,4 km/h (1 Bft) O-NO 67 6,8 C 10,9 C 5,8 km/h (2 Bft)
19.05.2019 20:54 11,3 C 7,4 C 14,2 C 76 % 1005,3 hPa 0,0 l/m 1,6 km/h (1 Bft) O 90 7,2 C 11,3 C 3,3 km/h (1 Bft)
19.05.2019 20:52 11,4 C 7,5 C 14,2 C 76 % 1005,3 hPa 0,0 l/m 1,6 km/h (1 Bft) NO 45 7,3 C 11,4 C 0,0 km/h (0 Bft)
19.05.2019 20:50 11,5 C 7,5 C 14,3 C 76 % 1005,3 hPa 0,0 l/m 1,8 km/h (1 Bft) O-NO 67 7,4 C 11,5 C 5,2 km/h (1 Bft)
19.05.2019 20:48 11,7 C 7,7 C 14,3 C 76 % 1005,3 hPa 0,0 l/m 1,8 km/h (1 Bft) N 360 7,6 C 11,7 C 2,5 km/h (1 Bft)
19.05.2019 20:46 11,9 C 7,8 C 14,3 C 76 % 1005,3 hPa 0,0 l/m 2,1 km/h (1 Bft) O-SO 112 7,8 C 11,9 C 4,1 km/h (1 Bft)
19.05.2019 20:44 12,0 C 7,9 C 14,3 C 76 % 1005,3 hPa 0,0 l/m 2,9 km/h (1 Bft) NO 45 7,9 C 12,0 C 0,0 km/h (0 Bft)
19.05.2019 20:42 11,6 C 8,1 C 14,3 C 77 % 1005,3 hPa 0,0 l/m 2,6 km/h (1 Bft) O-SO 112 7,7 C 11,6 C 2,9 km/h (1 Bft)
19.05.2019 20:40 11,7 C 8,3 C 14,3 C 77 % 1005,3 hPa 0,0 l/m 2,3 km/h (1 Bft) SO 135 7,8 C 11,7 C 3,9 km/h (1 Bft)
19.05.2019 20:38 11,6 C 8,3 C 14,3 C 77 % 1005,3 hPa 0,0 l/m 1,9 km/h (1 Bft) SO 135 7,7 C 11,6 C 2,1 km/h (1 Bft)
19.05.2019 20:36 11,7 C 8,6 C 14,3 C 77 % 1005,3 hPa 0,0 l/m 1,3 km/h (1 Bft) O 90 7,8 C 11,7 C 4,4 km/h (1 Bft)
19.05.2019 20:34 12,1 C 8,8 C 14,3 C 77 % 1005,3 hPa 0,0 l/m 0,6 km/h (0 Bft) O-NO 67 8,2 C 12,1 C 6,2 km/h (2 Bft)
19.05.2019 20:32 12,7 C 9,1 C 14,3 C 78 % 1005,3 hPa 0,0 l/m 0,0 km/h (0 Bft) SO 135 9,0 C 12,7 C 0,0 km/h (0 Bft)
19.05.2019 20:30 12,7 C 9,4 C 14,3 C 78 % 1005,3 hPa 0,0 l/m 0,0 km/h (0 Bft) N-NO 22 9,0 C 12,7 C 0,0 km/h (0 Bft)
19.05.2019 20:28 12,8 C 9,7 C 14,4 C 78 % 1005,3 hPa 0,0 l/m 0,0 km/h (0 Bft) O-NO 67 9,1 C 12,8 C 0,0 km/h (0 Bft)
19.05.2019 20:26 13,1 C 10,1 C 14,4 C 77 % 1005,3 hPa 0,0 l/m 0,0 km/h (0 Bft) O-SO 112 9,2 C 13,1 C 0,0 km/h (0 Bft)
19.05.2019 20:24 13,1 C 10,5 C 14,4 C 77 % 1005,3 hPa 0,0 l/m 0,2 km/h (0 Bft) O 90 9,2 C 13,1 C 0,0 km/h (0 Bft)
19.05.2019 20:22 13,1 C 10,8 C 14,4 C 78 % 1005,3 hPa 0,0 l/m 0,5 km/h (0 Bft) O-SO 112 9,4 C 13,1 C 0,0 km/h (0 Bft)
19.05.2019 20:20 13,4 C 11,3 C 14,4 C 78 % 1005,3 hPa 0,0 l/m 1,3 km/h (1 Bft) O 90 9,6 C 13,4 C 0,0 km/h (0 Bft)
19.05.2019 20:18 13,6 C 11,8 C 14,4 C 78 % 1005,4 hPa 0,0 l/m 2,1 km/h (1 Bft) O-NO 67 9,8 C 13,6 C 0,0 km/h (0 Bft)
19.05.2019 20:16 13,6 C 12,3 C 14,4 C 78 % 1005,4 hPa 0,0 l/m 2,3 km/h (1 Bft) W 270 9,8 C 13,6 C 0,0 km/h (0 Bft)
19.05.2019 20:14 13,7 C 12,6 C 14,4 C 78 % 1005,4 hPa 0,0 l/m 2,6 km/h (1 Bft) S-SW 202 9,9 C 13,7 C 2,5 km/h (1 Bft)
19.05.2019 20:12 13,8 C 12,8 C 14,4 C 78 % 1005,4 hPa 0,0 l/m 2,9 km/h (1 Bft) W 270 10,0 C 13,8 C 2,3 km/h (1 Bft)
19.05.2019 20:10 13,8 C 13,0 C 14,4 C 78 % 1005,4 hPa 0,0 l/m 2,7 km/h (1 Bft) W-NW 292 10,0 C 13,8 C 6,4 km/h (2 Bft)
19.05.2019 20:08 13,8 C 13,1 C 14,4 C 78 % 1005,4 hPa 0,0 l/m 2,4 km/h (1 Bft) NW 315 10,0 C 13,8 C 5,6 km/h (1 Bft)
19.05.2019 20:06 13,9 C 13,3 C 14,4 C 78 % 1005,4 hPa 0,0 l/m 2,1 km/h (1 Bft) W-NW 292 10,1 C 13,9 C 0,0 km/h (0 Bft)
19.05.2019 20:04 14,0 C 13,4 C 14,4 C 77 % 1005,4 hPa 0,0 l/m 2,7 km/h (1 Bft) NW 315 10,0 C 14,0 C 5,2 km/h (1 Bft)
19.05.2019 20:02 14,1 C 13,5 C 14,4 C 77 % 1005,4 hPa 0,0 l/m 2,7 km/h (1 Bft) W-NW 292 10,1 C 14,1 C 3,7 km/h (1 Bft)
19.05.2019 20:00 14,1 C 13,7 C 14,4 C 78 % 1005,4 hPa 0,0 l/m 2,6 km/h (1 Bft) S-SW 202 10,3 C 14,1 C 2,7 km/h (1 Bft)
19.05.2019 19:58 14,2 C 13,8 C 14,4 C 78 % 1005,6 hPa 0,0 l/m 2,1 km/h (1 Bft) SW 225 10,4 C 14,2 C 3,1 km/h (1 Bft)
19.05.2019 19:56 14,2 C 13,9 C 14,4 C 77 % 1005,6 hPa 0,0 l/m 1,9 km/h (1 Bft) S-SW 202 10,2 C 14,2 C 2,3 km/h (1 Bft)
19.05.2019 19:54 14,2 C 14,0 C 14,4 C 77 % 1005,6 hPa 0,0 l/m 1,6 km/h (1 Bft) S-SW 202 10,2 C 14,2 C 5,0 km/h (1 Bft)
19.05.2019 19:52 14,3 C 14,0 C 14,4 C 77 % 1005,6 hPa 0,0 l/m 1,1 km/h (1 Bft) N-NO 22 10,3 C 14,3 C 5,0 km/h (1 Bft)
19.05.2019 19:50 14,4 C 14,2 C 14,4 C 77 % 1005,6 hPa 0,0 l/m 0,6 km/h (0 Bft) S-SW 202 10,4 C 14,4 C 2,3 km/h (1 Bft)
19.05.2019 19:48 14,4 C 14,4 C 14,4 C 77 % 1005,6 hPa 0,0 l/m 0,6 km/h (0 Bft) S-SW 202 10,4 C 14,4 C 0,0 km/h (0 Bft)
19.05.2019 19:46 14,4 C 14,5 C 14,4 C 77 % 1005,6 hPa 0,0 l/m 0,6 km/h (0 Bft) N 360 10,4 C 14,4 C 0,0 km/h (0 Bft)
19.05.2019 19:44 14,5 C 14,5 C 14,4 C 77 % 1005,6 hPa 0,0 l/m 0,6 km/h (0 Bft) N-NO 22 10,5 C 14,5 C 0,0 km/h (0 Bft)
19.05.2019 19:42 14,5 C 14,7 C 14,4 C 77 % 1005,6 hPa 0,0 l/m 0,2 km/h (0 Bft) NW 315 10,5 C 14,5 C 4,1 km/h (1 Bft)
19.05.2019 19:40 14,5 C 14,8 C 14,4 C 77 % 1005,6 hPa 0,0 l/m 0,0 km/h (0 Bft) N-NW 337 10,5 C 14,5 C 0,0 km/h (0 Bft)
19.05.2019 19:38 14,5 C 14,9 C 14,4 C 77 % 1005,7 hPa 0,0 l/m 0,0 km/h (0 Bft) NW 315 10,5 C 14,5 C 0,0 km/h (0 Bft)
19.05.2019 19:36 14,5 C 15,0 C 14,4 C 77 % 1005,7 hPa 0,0 l/m 0,0 km/h (0 Bft) NW 315 10,5 C 14,5 C 0,0 km/h (0 Bft)
19.05.2019 19:34 14,6 C 15,1 C 14,4 C 76 % 1005,7 hPa 0,0 l/m 0,0 km/h (0 Bft) W-NW 292 10,4 C 14,6 C 0,0 km/h (0 Bft)
19.05.2019 19:32 14,6 C 15,0 C 14,4 C 76 % 1005,7 hPa 0,0 l/m 0,0 km/h (0 Bft) W 270 10,4 C 14,6 C 0,0 km/h (0 Bft)
19.05.2019 19:30 14,6 C 15,0 C 14,4 C 76 % 1005,7 hPa 0,0 l/m 0,2 km/h (0 Bft) S-SO 157 10,4 C 14,6 C 0,0 km/h (0 Bft)
19.05.2019 19:28 14,7 C 15,0 C 14,4 C 76 % 1005,7 hPa 0,0 l/m 0,2 km/h (0 Bft) S-SO 157 10,5 C 14,7 C 0,0 km/h (0 Bft)
19.05.2019 19:26 14,7 C 15,0 C 14,4 C 76 % 1005,7 hPa 0,0 l/m 0,5 km/h (0 Bft) O-NO 67 10,5 C 14,7 C 0,0 km/h (0 Bft)
19.05.2019 19:24 14,7 C 15,0 C 14,4 C 76 % 1005,7 hPa 0,0 l/m 1,3 km/h (1 Bft) O-NO 67 10,5 C 14,7 C 0,0 km/h (0 Bft)
19.05.2019 19:22 14,8 C 15,0 C 14,4 C 75 % 1005,7 hPa 0,0 l/m 1,8 km/h (1 Bft) NO 45 10,4 C 14,8 C 0,0 km/h (0 Bft)
19.05.2019 19:20 14,7 C 15,1 C 14,4 C 75 % 1005,7 hPa 0,0 l/m 2,6 km/h (1 Bft) N-NO 22 10,3 C 14,7 C 0,0 km/h (0 Bft)
19.05.2019 19:18 14,7 C 15,0 C 14,4 C 75 % 1005,8 hPa 0,0 l/m 2,7 km/h (1 Bft) NO 45 10,3 C 14,7 C 0,0 km/h (0 Bft)
19.05.2019 19:16 14,7 C 15,0 C 14,4 C 75 % 1005,8 hPa 0,0 l/m 2,9 km/h (1 Bft) NW 315 10,3 C 14,7 C 4,2 km/h (1 Bft)
19.05.2019 19:14 14,7 C 15,0 C 14,4 C 75 % 1005,8 hPa 0,0 l/m 2,3 km/h (1 Bft) NW 315 10,3 C 14,7 C 4,6 km/h (1 Bft)
19.05.2019 19:12 14,8 C 15,4 C 14,4 C 75 % 1005,8 hPa 0,0 l/m 1,6 km/h (1 Bft) W-NW 292 10,4 C 14,8 C 4,2 km/h (1 Bft)
19.05.2019 19:10 14,8 C 15,7 C 14,4 C 75 % 1005,8 hPa 0,0 l/m 0,6 km/h (0 Bft) W-NW 292 10,4 C 14,8 C 5,4 km/h (1 Bft)
19.05.2019 19:08 14,9 C 15,8 C 14,4 C 75 % 1005,8 hPa 0,0 l/m 0,3 km/h (0 Bft) NW 315 10,5 C 14,9 C 0,0 km/h (0 Bft)
19.05.2019 19:06 14,9 C 15,9 C 14,4 C 75 % 1005,8 hPa 0,0 l/m 0,2 km/h (0 Bft) NW 315 10,5 C 14,9 C 2,3 km/h (1 Bft)
19.05.2019 19:04 14,9 C 16,0 C 14,4 C 75 % 1005,8 hPa 0,0 l/m 0,0 km/h (0 Bft) NW 315 10,5 C 14,9 C 0,0 km/h (0 Bft)
19.05.2019 19:02 15,0 C 15,9 C 14,4 C 75 % 1005,8 hPa 0,0 l/m 0,0 km/h (0 Bft) N-NW 337 10,6 C 15,0 C 0,0 km/h (0 Bft)
19.05.2019 19:00 14,9 C 15,8 C 14,4 C 75 % 1005,8 hPa 0,0 l/m 0,2 km/h (0 Bft) NW 315 10,5 C 14,9 C 0,0 km/h (0 Bft)
19.05.2019 18:58 14,9 C 15,7 C 14,4 C 75 % 1005,6 hPa 0,0 l/m 0,6 km/h (0 Bft) N-NO 22 10,5 C 14,9 C 0,0 km/h (0 Bft)
19.05.2019 18:56 14,8 C 15,8 C 14,4 C 75 % 1005,6 hPa 0,0 l/m 1,1 km/h (1 Bft) N 360 10,4 C 14,8 C 0,0 km/h (0 Bft)
19.05.2019 18:54 14,8 C 15,8 C 14,4 C 74 % 1005,6 hPa 0,0 l/m 1,9 km/h (1 Bft) NW 315 10,2 C 14,8 C 0,0 km/h (0 Bft)
19.05.2019 18:52 14,7 C 15,7 C 14,4 C 74 % 1005,6 hPa 0,0 l/m 2,6 km/h (1 Bft) NW 315 10,1 C 14,7 C 0,0 km/h (0 Bft)
19.05.2019 18:50 14,7 C 15,5 C 14,5 C 74 % 1005,6 hPa 0,0 l/m 3,1 km/h (1 Bft) W-NW 292 10,1 C 14,7 C 0,0 km/h (0 Bft)
19.05.2019 18:48 14,7 C 15,6 C 14,5 C 74 % 1005,6 hPa 0,0 l/m 3,5 km/h (1 Bft) W-NW 292 10,1 C 14,7 C 4,4 km/h (1 Bft)
19.05.2019 18:46 14,7 C 15,6 C 14,5 C 74 % 1005,6 hPa 0,0 l/m 3,2 km/h (1 Bft) SW 225 10,1 C 14,7 C 4,4 km/h (1 Bft)
19.05.2019 18:44 14,7 C 15,5 C 14,5 C 74 % 1005,6 hPa 0,0 l/m 3,1 km/h (1 Bft) SW 225 10,1 C 14,7 C 6,0 km/h (2 Bft)
19.05.2019 18:42 14,7 C 15,3 C 14,5 C 73 % 1005,6 hPa 0,0 l/m 2,4 km/h (1 Bft) W-SW 247 9,9 C 14,7 C 4,6 km/h (1 Bft)
19.05.2019 18:40 14,8 C 15,3 C 14,5 C 73 % 1005,6 hPa 0,0 l/m 1,9 km/h (1 Bft) W-SW 247 10,0 C 14,8 C 4,1 km/h (1 Bft)
19.05.2019 18:38 14,8 C 15,4 C 14,5 C 73 % 1005,6 hPa 0,0 l/m 1,3 km/h (1 Bft) W-NW 292 10,0 C 14,8 C 4,8 km/h (1 Bft)
19.05.2019 18:36 14,8 C 15,5 C 14,5 C 73 % 1005,6 hPa 0,0 l/m 1,8 km/h (1 Bft) W 270 10,0 C 14,8 C 2,1 km/h (1 Bft)
19.05.2019 18:34 14,8 C 15,5 C 14,5 C 73 % 1005,6 hPa 0,0 l/m 2,6 km/h (1 Bft) W-SW 247 10,0 C 14,8 C 3,1 km/h (1 Bft)
19.05.2019 18:32 14,9 C 15,7 C 14,5 C 72 % 1005,6 hPa 0,0 l/m 2,9 km/h (1 Bft) W-NW 292 9,9 C 14,9 C 2,1 km/h (1 Bft)
19.05.2019 18:30 15,0 C 15,6 C 14,5 C 71 % 1005,6 hPa 0,0 l/m 3,1 km/h (1 Bft) O-NO 67 9,8 C 15,0 C 0,0 km/h (0 Bft)
19.05.2019 18:28 15,0 C 15,7 C 14,5 C 72 % 1005,6 hPa 0,0 l/m 3,2 km/h (1 Bft) NO 45 10,0 C 15,0 C 0,0 km/h (0 Bft)
19.05.2019 18:26 15,0 C 16,1 C 14,5 C 72 % 1005,6 hPa 0,0 l/m 3,2 km/h (1 Bft) NW 315 10,0 C 15,0 C 5,4 km/h (1 Bft)
19.05.2019 18:24 15,0 C 16,3 C 14,5 C 72 % 1005,6 hPa 0,0 l/m 2,6 km/h (1 Bft) NW 315 10,0 C 15,0 C 10,2 km/h (2 Bft)
19.05.2019 18:22 15,1 C 16,3 C 14,5 C 72 % 1005,6 hPa 0,0 l/m 1,6 km/h (1 Bft) W 270 10,1 C 15,1 C 4,1 km/h (1 Bft)
19.05.2019 18:20 15,1 C 16,1 C 14,5 C 71 % 1005,6 hPa 0,0 l/m 1,4 km/h (1 Bft) S-SW 202 9,9 C 15,1 C 3,3 km/h (1 Bft)
19.05.2019 18:18 15,2 C 15,9 C 14,5 C 71 % 1005,7 hPa 0,0 l/m 1,9 km/h (1 Bft) NW 315 10,0 C 15,2 C 3,3 km/h (1 Bft)
19.05.2019 18:16 15,3 C 15,9 C 14,5 C 70 % 1005,7 hPa 0,0 l/m 1,8 km/h (1 Bft) NW 315 9,9 C 15,3 C 8,9 km/h (2 Bft)
19.05.2019 18:14 15,3 C 16,1 C 14,5 C 71 % 1005,7 hPa 0,0 l/m 1,4 km/h (1 Bft) O-NO 67 10,1 C 15,3 C 2,5 km/h (1 Bft)
19.05.2019 18:12 15,3 C 16,3 C 14,5 C 71 % 1005,7 hPa 0,0 l/m 1,4 km/h (1 Bft) S-SO 157 10,1 C 15,3 C 0,0 km/h (0 Bft)
19.05.2019 18:10 15,2 C 16,4 C 14,5 C 71 % 1005,7 hPa 0,0 l/m 1,4 km/h (1 Bft) NW 315 10,0 C 15,2 C 0,0 km/h (0 Bft)
19.05.2019 18:08 15,2 C 16,4 C 14,5 C 71 % 1005,7 hPa 0,0 l/m 0,8 km/h (0 Bft) N-NW 337 10,0 C 15,2 C 2,3 km/h (1 Bft)
19.05.2019 18:06 15,2 C 16,8 C 14,5 C 71 % 1005,7 hPa 0,0 l/m 1,0 km/h (0 Bft) O-NO 67 10,0 C 15,2 C 0,0 km/h (0 Bft)
19.05.2019 18:04 15,1 C 17,0 C 14,5 C 72 % 1005,7 hPa 0,0 l/m 1,4 km/h (1 Bft) N 360 10,1 C 15,1 C 4,1 km/h (1 Bft)
19.05.2019 18:02 15,1 C 16,9 C 14,5 C 72 % 1005,7 hPa 0,0 l/m 2,9 km/h (1 Bft) N-NO 22 10,1 C 15,1 C 0,0 km/h (0 Bft)
19.05.2019 18:00 15,1 C 16,6 C 14,5 C 71 % 1005,7 hPa 0,0 l/m 4,0 km/h (1 Bft) O-NO 67 9,9 C 15,1 C 0,0 km/h (0 Bft)
19.05.2019 17:58 15,0 C 16,4 C 14,5 C 71 % 1005,8 hPa 0,0 l/m 5,5 km/h (1 Bft) O-NO 67 9,8 C 15,0 C 1,9 km/h (1 Bft)
19.05.2019 17:56 14,9 C 16,2 C 14,5 C 71 % 1005,8 hPa 0,0 l/m 6,3 km/h (2 Bft) NW 315 9,7 C 14,9 C 0,0 km/h (0 Bft)
19.05.2019 17:54 14,9 C 16,0 C 14,5 C 71 % 1005,8 hPa 0,0 l/m 6,8 km/h (2 Bft) S 180 9,7 C 14,7 C 5,2 km/h (1 Bft)
19.05.2019 17:52 14,9 C 16,1 C 14,5 C 71 % 1005,8 hPa 0,0 l/m 6,6 km/h (2 Bft) W-NW 292 9,7 C 14,8 C 12,7 km/h (3 Bft)
19.05.2019 17:50 14,9 C 16,3 C 14,5 C 71 % 1005,8 hPa 0,0 l/m 6,0 km/h (2 Bft) NW 315 9,7 C 14,9 C 10,0 km/h (2 Bft)
19.05.2019 17:48 14,9 C 16,5 C 14,5 C 71 % 1005,8 hPa 0,0 l/m 5,8 km/h (2 Bft) W-NW 292 9,7 C 14,9 C 11,4 km/h (2 Bft)
19.05.2019 17:46 15,0 C 16,4 C 14,5 C 70 % 1005,8 hPa 0,0 l/m 5,8 km/h (2 Bft) W-NW 292 9,6 C 15,0 C 7,9 km/h (2 Bft)
19.05.2019 17:44 15,0 C 16,5 C 14,5 C 70 % 1005,8 hPa 0,0 l/m 6,3 km/h (2 Bft) W-NW 292 9,6 C 15,0 C 7,5 km/h (2 Bft)
19.05.2019 17:42 15,0 C 16,4 C 14,5 C 70 % 1005,8 hPa 0,0 l/m 6,6 km/h (2 Bft) W-NW 292 9,6 C 14,9 C 5,0 km/h (1 Bft)
19.05.2019 17:40 14,9 C 16,5 C 14,5 C 70 % 1005,8 hPa 0,0 l/m 7,1 km/h (2 Bft) W-NW 292 9,5 C 14,5 C 7,3 km/h (2 Bft)
19.05.2019 17:38 14,9 C 16,6 C 14,5 C 70 % 1006,1 hPa 0,0 l/m 7,1 km/h (2 Bft) W-NW 292 9,5 C 14,5 C 8,7 km/h (2 Bft)
19.05.2019 17:36 14,9 C 16,6 C 14,5 C 70 % 1006,1 hPa 0,0 l/m 7,6 km/h (2 Bft) W-NW 292 9,5 C 14,2 C 11,8 km/h (2 Bft)
19.05.2019 17:34 14,9 C 16,7 C 14,5 C 70 % 1006,1 hPa 0,0 l/m 8,0 km/h (2 Bft) W-NW 292 9,5 C 14,0 C 11,2 km/h (2 Bft)
19.05.2019 17:32 15,0 C 16,9 C 14,5 C 70 % 1006,1 hPa 0,0 l/m 7,4 km/h (2 Bft) W 270 9,6 C 14,4 C 8,3 km/h (2 Bft)
19.05.2019 17:30 15,0 C 16,7 C 14,5 C 69 % 1006,1 hPa 0,0 l/m 6,3 km/h (2 Bft) W-NW 292 9,4 C 15,0 C 10,2 km/h (2 Bft)
19.05.2019 17:28 15,0 C 16,6 C 14,5 C 69 % 1006,1 hPa 0,0 l/m 5,1 km/h (1 Bft) W-NW 292 9,4 C 15,0 C 9,1 km/h (2 Bft)
19.05.2019 17:26 15,1 C 16,8 C 14,5 C 68 % 1006,1 hPa 0,0 l/m 3,7 km/h (1 Bft) W 270 9,2 C 15,1 C 13,1 km/h (3 Bft)
19.05.2019 17:24 15,3 C 17,4 C 14,5 C 68 % 1006,1 hPa 0,0 l/m 1,6 km/h (1 Bft) W-NW 292 9,4 C 15,3 C 13,3 km/h (3 Bft)
19.05.2019 17:22 15,4 C 17,5 C 14,5 C 68 % 1006,1 hPa 0,0 l/m 0,5 km/h (0 Bft) W-NW 292 9,5 C 15,4 C 3,3 km/h (1 Bft)
19.05.2019 17:20 15,3 C 17,1 C 14,5 C 67 % 1006,1 hPa 0,0 l/m 0,3 km/h (0 Bft) N 360 9,2 C 15,3 C 0,0 km/h (0 Bft)
19.05.2019 17:18 15,1 C 16,7 C 14,5 C 67 % 1005,8 hPa 0,0 l/m 0,5 km/h (0 Bft) N-NW 337 9,0 C 15,1 C 0,0 km/h (0 Bft)
19.05.2019 17:16 15,0 C 16,6 C 14,5 C 67 % 1005,8 hPa 0,0 l/m 0,6 km/h (0 Bft) NW 315 8,9 C 15,0 C 0,0 km/h (0 Bft)
19.05.2019 17:14 14,9 C 16,0 C 14,5 C 68 % 1005,8 hPa 0,0 l/m 1,0 km/h (0 Bft) N 360 9,0 C 14,9 C 0,0 km/h (0 Bft)
19.05.2019 17:12 14,9 C 16,1 C 14,5 C 67 % 1005,8 hPa 0,0 l/m 2,1 km/h (1 Bft) NW 315 8,8 C 14,9 C 2,3 km/h (1 Bft)
19.05.2019 17:10 14,9 C 15,9 C 14,5 C 67 % 1005,8 hPa 0,0 l/m 2,6 km/h (1 Bft) O-NO 67 8,8 C 14,9 C 3,7 km/h (1 Bft)
19.05.2019 17:08 15,0 C 15,8 C 14,5 C 66 % 1005,8 hPa 0,0 l/m 3,4 km/h (1 Bft) N-NW 337 8,7 C 15,0 C 3,5 km/h (1 Bft)
19.05.2019 17:06 15,1 C 15,5 C 14,5 C 65 % 1005,8 hPa 0,0 l/m 4,2 km/h (1 Bft) O 90 8,6 C 15,1 C 2,3 km/h (1 Bft)
19.05.2019 17:04 15,3 C 15,3 C 14,5 C 64 % 1005,8 hPa 0,0 l/m 5,0 km/h (1 Bft) O-NO 67 8,5 C 15,3 C 3,9 km/h (1 Bft)
19.05.2019 17:02 15,4 C 15,1 C 14,5 C 63 % 1005,8 hPa 0,0 l/m 5,1 km/h (1 Bft) O-NO 67 8,4 C 15,4 C 8,1 km/h (2 Bft)
19.05.2019 17:00 15,6 C 15,5 C 14,5 C 63 % 1005,8 hPa 0,0 l/m 5,5 km/h (1 Bft) SO 135 8,6 C 15,6 C 10,2 km/h (2 Bft)
19.05.2019 16:58 15,7 C 15,4 C 14,5 C 63 % 1005,9 hPa 0,0 l/m 6,0 km/h (2 Bft) O-NO 67 8,7 C 15,7 C 5,8 km/h (2 Bft)
19.05.2019 16:56 15,9 C 15,1 C 14,5 C 62 % 1005,9 hPa 0,0 l/m 5,3 km/h (1 Bft) N-NO 22 8,6 C 15,9 C 10,2 km/h (2 Bft)
19.05.2019 16:54 16,0 C 15,3 C 14,5 C 61 % 1005,9 hPa 0,0 l/m 4,8 km/h (1 Bft) O-NO 67 8,5 C 16,0 C 11,4 km/h (2 Bft)
19.05.2019 16:52 16,5 C 16,3 C 14,5 C 60 % 1005,9 hPa 0,0 l/m 3,9 km/h (1 Bft) O-NO 67 8,7 C 16,5 C 6,6 km/h (2 Bft)
19.05.2019 16:50 16,9 C 17,8 C 14,5 C 59 % 1005,9 hPa 0,0 l/m 3,7 km/h (1 Bft) O 90 8,8 C 16,9 C 17,4 km/h (3 Bft)
19.05.2019 16:48 17,4 C 18,5 C 14,5 C 58 % 1005,9 hPa 0,0 l/m 2,6 km/h (1 Bft) O-SO 112 9,1 C 17,4 C 6,6 km/h (2 Bft)
19.05.2019 16:46 17,5 C 18,8 C 14,5 C 58 % 1005,9 hPa 0,0 l/m 3,1 km/h (1 Bft) O-NO 67 9,1 C 17,5 C 5,4 km/h (1 Bft)
19.05.2019 16:44 17,6 C 19,3 C 14,5 C 58 % 1005,9 hPa 0,0 l/m 3,5 km/h (1 Bft) W-NW 292 9,2 C 17,6 C 3,1 km/h (1 Bft)
19.05.2019 16:42 17,7 C 20,8 C 14,4 C 58 % 1005,9 hPa 0,0 l/m 3,4 km/h (1 Bft) W-SW 247 9,3 C 17,7 C 3,1 km/h (1 Bft)
19.05.2019 16:40 17,9 C 21,9 C 14,4 C 58 % 1005,9 hPa 0,0 l/m 3,5 km/h (1 Bft) W-NW 292 9,5 C 17,9 C 6,8 km/h (2 Bft)
19.05.2019 16:38 18,0 C 22,6 C 14,4 C 58 % 1006,0 hPa 0,0 l/m 3,5 km/h (1 Bft) S 180 9,6 C 18,0 C 5,4 km/h (1 Bft)
19.05.2019 16:36 18,1 C 23,4 C 14,3 C 59 % 1006,0 hPa 0,0 l/m 3,9 km/h (1 Bft) S-SW 202 10,0 C 18,1 C 6,0 km/h (2 Bft)
19.05.2019 16:34 18,1 C 23,7 C 14,3 C 59 % 1006,0 hPa 0,0 l/m 4,0 km/h (1 Bft) O-NO 67 10,0 C 18,1 C 7,0 km/h (2 Bft)
19.05.2019 16:32 18,2 C 24,2 C 14,3 C 58 % 1006,0 hPa 0,0 l/m 3,9 km/h (1 Bft) W-NW 292 9,8 C 18,2 C 0,0 km/h (0 Bft)
19.05.2019 16:30 18,1 C 24,9 C 14,4 C 59 % 1006,0 hPa 0,0 l/m 4,8 km/h (1 Bft) S-SW 202 10,0 C 18,1 C 4,4 km/h (1 Bft)
19.05.2019 16:28 17,9 C 24,9 C 14,4 C 59 % 1006,0 hPa 0,0 l/m 4,3 km/h (1 Bft) S-SO 157 9,8 C 17,9 C 10,0 km/h (2 Bft)
19.05.2019 16:26 17,7 C 24,6 C 14,4 C 60 % 1006,0 hPa 0,0 l/m 3,2 km/h (1 Bft) W 270 9,8 C 17,7 C 6,0 km/h (2 Bft)
19.05.2019 16:24 17,5 C 23,1 C 14,4 C 60 % 1006,0 hPa 0,0 l/m 2,9 km/h (1 Bft) W-SW 247 9,6 C 17,5 C 6,2 km/h (2 Bft)
19.05.2019 16:22 17,1 C 21,4 C 14,3 C 59 % 1006,0 hPa 0,0 l/m 2,9 km/h (1 Bft) S 180 9,0 C 17,1 C 2,7 km/h (1 Bft)
19.05.2019 16:20 17,0 C 19,9 C 14,3 C 59 % 1006,0 hPa 0,0 l/m 2,9 km/h (1 Bft) S 180 8,9 C 17,0 C 10,0 km/h (2 Bft)
19.05.2019 16:18 17,0 C 19,9 C 14,3 C 59 % 1006,1 hPa 0,0 l/m 2,7 km/h (1 Bft) W 270 8,9 C 17,0 C 0,0 km/h (0 Bft)
19.05.2019 16:16 17,0 C 19,7 C 14,3 C 59 % 1006,1 hPa 0,0 l/m 3,4 km/h (1 Bft) W 270 8,9 C 17,0 C 0,0 km/h (0 Bft)
19.05.2019 16:14 16,9 C 19,5 C 14,3 C 59 % 1006,1 hPa 0,0 l/m 4,7 km/h (1 Bft) S-SW 202 8,8 C 16,9 C 6,2 km/h (2 Bft)
19.05.2019 16:12 16,9 C 19,7 C 14,3 C 59 % 1006,1 hPa 0,0 l/m 4,8 km/h (1 Bft) S-SW 202 8,8 C 16,9 C 6,4 km/h (2 Bft)
19.05.2019 16:10 17,0 C 20,0 C 14,3 C 59 % 1006,1 hPa 0,0 l/m 4,8 km/h (1 Bft) SW 225 8,9 C 17,0 C 3,5 km/h (1 Bft)
19.05.2019 16:08 17,0 C 21,0 C 14,3 C 58 % 1006,1 hPa 0,0 l/m 5,0 km/h (1 Bft) S-SW 202 8,7 C 17,0 C 5,8 km/h (2 Bft)
19.05.2019 16:06 17,0 C 20,6 C 14,3 C 58 % 1006,1 hPa 0,0 l/m 6,3 km/h (2 Bft) S-SW 202 8,7 C 17,0 C 10,8 km/h (2 Bft)
19.05.2019 16:04 17,2 C 20,7 C 14,3 C 59 % 1006,1 hPa 0,0 l/m 6,0 km/h (2 Bft) S-SW 202 9,1 C 17,2 C 9,7 km/h (2 Bft)
19.05.2019 16:02 17,1 C 21,1 C 14,3 C 58 % 1006,1 hPa 0,0 l/m 6,4 km/h (2 Bft) W 270 8,8 C 17,1 C 4,2 km/h (1 Bft)
19.05.2019 16:00 17,3 C 21,8 C 14,3 C 59 % 1006,1 hPa 0,0 l/m 6,9 km/h (2 Bft) N-NW 337 9,2 C 17,1 C 8,7 km/h (2 Bft)
19.05.2019 15:58 17,1 C 21,8 C 14,2 C 59 % 1006,0 hPa 0,0 l/m 7,7 km/h (2 Bft) SO 135 9,0 C 16,5 C 7,7 km/h (2 Bft)
19.05.2019 15:56 17,1 C 21,3 C 14,2 C 59 % 1006,0 hPa 0,0 l/m 7,7 km/h (2 Bft) S 180 9,0 C 16,5 C 10,6 km/h (2 Bft)
19.05.2019 15:54 17,3 C 22,6 C 14,2 C 59 % 1006,0 hPa 0,0 l/m 7,7 km/h (2 Bft) SW 225 9,2 C 16,7 C 8,7 km/h (2 Bft)
19.05.2019 15:52 17,1 C 22,5 C 14,2 C 58 % 1006,0 hPa 0,0 l/m 8,7 km/h (2 Bft) SW 225 8,8 C 16,0 C 13,3 km/h (3 Bft)
19.05.2019 15:50 17,3 C 22,8 C 14,2 C 59 % 1006,0 hPa 0,0 l/m 9,2 km/h (2 Bft) S-SO 157 9,2 C 16,0 C 11,6 km/h (2 Bft)
19.05.2019 15:48 17,2 C 22,8 C 14,2 C 58 % 1006,0 hPa 0,0 l/m 10,1 km/h (2 Bft) S 180 8,9 C 15,5 C 12,0 km/h (2 Bft)
19.05.2019 15:46 17,1 C 22,2 C 14,2 C 58 % 1006,0 hPa 0,0 l/m 10,9 km/h (2 Bft) S 180 8,8 C 15,1 C 9,1 km/h (2 Bft)
19.05.2019 15:44 16,8 C 20,4 C 14,2 C 57 % 1006,0 hPa 0,0 l/m 11,4 km/h (2 Bft) SO 135 8,2 C 14,6 C 15,3 km/h (3 Bft)
19.05.2019 15:42 17,1 C 21,7 C 14,2 C 57 % 1006,0 hPa 0,0 l/m 11,3 km/h (2 Bft) S-SW 202 8,5 C 14,9 C 19,5 km/h (3 Bft)
19.05.2019 15:40 17,1 C 22,6 C 14,2 C 57 % 1006,0 hPa 0,0 l/m 11,1 km/h (2 Bft) S-SO 157 8,5 C 15,0 C 20,7 km/h (4 Bft)
19.05.2019 15:38 16,9 C 20,5 C 14,2 C 57 % 1006,1 hPa 0,0 l/m 9,8 km/h (2 Bft) SO 135 8,3 C 15,3 C 17,6 km/h (3 Bft)
19.05.2019 15:36 16,8 C 19,2 C 14,1 C 56 % 1006,1 hPa 0,0 l/m 6,9 km/h (2 Bft) SW 225 8,0 C 16,5 C 17,0 km/h (3 Bft)
19.05.2019 15:34 17,0 C 19,2 C 14,1 C 56 % 1006,1 hPa 0,0 l/m 5,1 km/h (1 Bft) SO 135 8,2 C 17,0 C 16,4 km/h (3 Bft)
19.05.2019 15:32 17,2 C 19,4 C 14,1 C 56 % 1006,1 hPa 0,0 l/m 3,9 km/h (1 Bft) SO 135 8,3 C 17,2 C 17,0 km/h (3 Bft)
19.05.2019 15:30 17,7 C 20,2 C 14,1 C 56 % 1006,1 hPa 0,0 l/m 2,6 km/h (1 Bft) S-SO 157 8,8 C 17,7 C 15,6 km/h (3 Bft)
19.05.2019 15:28 17,8 C 19,9 C 14,1 C 56 % 1006,1 hPa 0,0 l/m 2,4 km/h (1 Bft) O-NO 67 8,9 C 17,8 C 4,1 km/h (1 Bft)
19.05.2019 15:26 17,6 C 19,8 C 14,1 C 55 % 1006,1 hPa 0,0 l/m 2,7 km/h (1 Bft) S-SW 202 8,5 C 17,6 C 0,0 km/h (0 Bft)
19.05.2019 15:24 17,6 C 19,6 C 14,1 C 55 % 1006,1 hPa 0,0 l/m 3,7 km/h (1 Bft) NO 45 8,5 C 17,6 C 6,0 km/h (2 Bft)
19.05.2019 15:22 17,6 C 19,5 C 14,1 C 54 % 1006,1 hPa 0,0 l/m 3,7 km/h (1 Bft) W-NW 292 8,2 C 17,6 C 0,0 km/h (0 Bft)
19.05.2019 15:20 17,6 C 19,6 C 14,1 C 54 % 1006,1 hPa 0,0 l/m 5,3 km/h (1 Bft) NO 45 8,2 C 17,6 C 7,0 km/h (2 Bft)
19.05.2019 15:18 17,6 C 19,7 C 14,1 C 54 % 1006,0 hPa 0,0 l/m 5,8 km/h (2 Bft) SO 135 8,2 C 17,6 C 8,9 km/h (2 Bft)
19.05.2019 15:16 17,6 C 20,3 C 14,1 C 54 % 1006,0 hPa 0,0 l/m 5,8 km/h (2 Bft) N-NO 22 8,2 C 17,6 C 6,0 km/h (2 Bft)
19.05.2019 15:14 17,9 C 20,9 C 14,1 C 54 % 1006,0 hPa 0,0 l/m 4,8 km/h (1 Bft) N-NO 22 8,5 C 17,9 C 3,7 km/h (1 Bft)
19.05.2019 15:12 17,8 C 20,9 C 14,1 C 54 % 1006,0 hPa 0,0 l/m 5,6 km/h (1 Bft) S-SW 202 8,4 C 17,8 C 2,5 km/h (1 Bft)
19.05.2019 15:10 17,8 C 21,3 C 13,9 C 54 % 1006,0 hPa 0,0 l/m 5,8 km/h (2 Bft) O-SO 112 8,4 C 17,8 C 20,9 km/h (4 Bft)
19.05.2019 15:08 17,9 C 22,4 C 13,9 C 54 % 1006,0 hPa 0,0 l/m 5,0 km/h (1 Bft) O-NO 67 8,5 C 17,9 C 15,1 km/h (3 Bft)
19.05.2019 15:06 18,1 C 22,9 C 13,9 C 55 % 1006,0 hPa 0,0 l/m 4,8 km/h (1 Bft) O-NO 67 8,9 C 18,1 C 6,6 km/h (2 Bft)
19.05.2019 15:04 18,2 C 23,1 C 13,9 C 55 % 1006,0 hPa 0,0 l/m 4,5 km/h (1 Bft) N-NO 22 9,0 C 18,2 C 2,3 km/h (1 Bft)
19.05.2019 15:02 18,0 C 24,5 C 13,9 C 54 % 1006,0 hPa 0,0 l/m 4,7 km/h (1 Bft) O-SO 112 8,6 C 18,0 C 10,6 km/h (2 Bft)
19.05.2019 15:00 18,1 C 24,4 C 13,9 C 54 % 1006,0 hPa 0,0 l/m 3,5 km/h (1 Bft) NO 45 8,6 C 18,1 C 11,8 km/h (2 Bft)
19.05.2019 14:58 18,1 C 23,4 C 13,9 C 54 % 1006,1 hPa 0,0 l/m 2,9 km/h (1 Bft) NO 45 8,6 C 18,1 C 2,5 km/h (1 Bft)
19.05.2019 14:56 17,8 C 21,3 C 13,9 C 54 % 1006,1 hPa 0,0 l/m 2,7 km/h (1 Bft) O-SO 112 8,4 C 17,8 C 6,2 km/h (2 Bft)
19.05.2019 14:54 17,8 C 20,2 C 13,9 C 54 % 1006,1 hPa 0,0 l/m 3,1 km/h (1 Bft) O 90 8,4 C 17,8 C 2,3 km/h (1 Bft)
19.05.2019 14:52 17,8 C 20,0 C 13,9 C 54 % 1006,1 hPa 0,0 l/m 3,5 km/h (1 Bft) W 270 8,4 C 17,8 C 7,1 km/h (2 Bft)
19.05.2019 14:50 17,8 C 19,5 C 13,9 C 54 % 1006,1 hPa 0,0 l/m 4,2 km/h (1 Bft) O-NO 67 8,4 C 17,8 C 2,3 km/h (1 Bft)
19.05.2019 14:48 17,8 C 19,9 C 13,9 C 54 % 1006,1 hPa 0,0 l/m 4,5 km/h (1 Bft) SO 135 8,4 C 17,8 C 5,0 km/h (1 Bft)
19.05.2019 14:46 17,8 C 20,0 C 13,8 C 54 % 1006,1 hPa 0,0 l/m 5,3 km/h (1 Bft) W-NW 292 8,4 C 17,8 C 4,1 km/h (1 Bft)
19.05.2019 14:44 17,8 C 20,0 C 13,8 C 54 % 1006,1 hPa 0,0 l/m 6,1 km/h (2 Bft) S-SO 157 8,4 C 17,8 C 10,8 km/h (2 Bft)
19.05.2019 14:42 17,8 C 19,9 C 13,8 C 54 % 1006,1 hPa 0,0 l/m 6,3 km/h (2 Bft) O-NO 67 8,4 C 17,8 C 3,3 km/h (1 Bft)
19.05.2019 14:40 17,8 C 19,7 C 13,8 C 54 % 1006,1 hPa 0,0 l/m 6,9 km/h (2 Bft) O-NO 67 8,4 C 17,6 C 13,5 km/h (3 Bft)
19.05.2019 14:38 17,8 C 19,5 C 13,8 C 54 % 1005,8 hPa 0,0 l/m 6,1 km/h (2 Bft) O-NO 67 8,4 C 17,8 C 7,7 km/h (2 Bft)
19.05.2019 14:36 17,7 C 19,8 C 13,8 C 54 % 1005,8 hPa 0,0 l/m 6,0 km/h (2 Bft) O-NO 67 8,3 C 17,7 C 14,7 km/h (3 Bft)
19.05.2019 14:34 17,9 C 19,9 C 13,8 C 54 % 1005,8 hPa 0,0 l/m 6,1 km/h (2 Bft) O-NO 67 8,5 C 17,9 C 12,6 km/h (3 Bft)
19.05.2019 14:32 18,0 C 20,0 C 13,8 C 53 % 1005,8 hPa 0,0 l/m 5,3 km/h (1 Bft) O-NO 67 8,3 C 18,0 C 12,2 km/h (2 Bft)
19.05.2019 14:30 18,1 C 20,6 C 13,8 C 54 % 1005,8 hPa 0,0 l/m 4,0 km/h (1 Bft) O 90 8,6 C 18,1 C 3,9 km/h (1 Bft)
19.05.2019 14:28 18,2 C 20,9 C 13,8 C 53 % 1005,8 hPa 0,0 l/m 4,3 km/h (1 Bft) N 360 8,5 C 18,2 C 3,5 km/h (1 Bft)
19.05.2019 14:26 18,2 C 20,6 C 13,8 C 53 % 1005,8 hPa 0,0 l/m 5,3 km/h (1 Bft) O-NO 67 8,5 C 18,2 C 8,9 km/h (2 Bft)
19.05.2019 14:24 18,3 C 20,4 C 13,7 C 53 % 1005,8 hPa 0,0 l/m 6,0 km/h (2 Bft) O-SO 112 8,6 C 18,3 C 14,1 km/h (3 Bft)
19.05.2019 14:22 18,3 C 20,6 C 13,7 C 53 % 1005,8 hPa 0,0 l/m 6,0 km/h (2 Bft) N-NO 22 8,6 C 18,3 C 5,2 km/h (1 Bft)
19.05.2019 14:20 18,3 C 21,2 C 13,7 C 52 % 1005,8 hPa 0,0 l/m 6,0 km/h (2 Bft) W 270 8,3 C 18,3 C 5,2 km/h (1 Bft)
19.05.2019 14:18 18,4 C 21,6 C 13,7 C 52 % 1005,8 hPa 0,0 l/m 4,5 km/h (1 Bft) W 270 8,4 C 18,4 C 3,7 km/h (1 Bft)
19.05.2019 14:16 18,3 C 22,0 C 13,7 C 52 % 1005,8 hPa 0,0 l/m 4,2 km/h (1 Bft) O-SO 112 8,3 C 18,3 C 14,7 km/h (3 Bft)
19.05.2019 14:14 18,5 C 22,4 C 13,7 C 53 % 1005,8 hPa 0,0 l/m 3,7 km/h (1 Bft) O-NO 67 8,7 C 18,5 C 16,8 km/h (3 Bft)
19.05.2019 14:12 18,7 C 23,1 C 13,7 C 53 % 1005,8 hPa 0,0 l/m 1,4 km/h (1 Bft) O-NO 67 8,9 C 18,7 C 3,9 km/h (1 Bft)
19.05.2019 14:10 18,6 C 22,8 C 13,7 C 53 % 1005,8 hPa 0,0 l/m 1,3 km/h (1 Bft) SW 225 8,8 C 18,6 C 0,0 km/h (0 Bft)
19.05.2019 14:08 18,4 C 22,5 C 13,7 C 52 % 1005,8 hPa 0,0 l/m 1,3 km/h (1 Bft) NO 45 8,4 C 18,4 C 0,0 km/h (0 Bft)
19.05.2019 14:06 18,6 C 21,9 C 13,6 C 53 % 1005,8 hPa 0,0 l/m 1,0 km/h (0 Bft) O 90 8,8 C 18,6 C 6,4 km/h (2 Bft)
19.05.2019 14:04 18,4 C 21,9 C 13,6 C 52 % 1005,8 hPa 0,0 l/m 0,6 km/h (0 Bft) O-SO 112 8,4 C 18,4 C 4,1 km/h (1 Bft)
19.05.2019 14:02 18,5 C 21,7 C 13,6 C 53 % 1005,8 hPa 0,0 l/m 0,6 km/h (0 Bft) O-SO 112 8,7 C 18,5 C 2,5 km/h (1 Bft)
19.05.2019 14:00 18,4 C 21,4 C 13,6 C 52 % 1005,8 hPa 0,0 l/m 1,0 km/h (0 Bft) O-SO 112 8,4 C 18,4 C 0,0 km/h (0 Bft)
19.05.2019 13:58 18,4 C 21,1 C 13,6 C 51 % 1006,0 hPa 0,0 l/m 1,1 km/h (1 Bft) O-NO 67 8,1 C 18,4 C 0,0 km/h (0 Bft)
19.05.2019 13:56 18,4 C 21,0 C 13,6 C 51 % 1006,0 hPa 0,0 l/m 1,8 km/h (1 Bft) SW 225 8,1 C 18,4 C 0,0 km/h (0 Bft)
19.05.2019 13:54 18,5 C 21,1 C 13,6 C 51 % 1006,0 hPa 0,0 l/m 1,9 km/h (1 Bft) SW 225 8,2 C 18,5 C 2,3 km/h (1 Bft)
19.05.2019 13:52 18,5 C 21,5 C 13,5 C 51 % 1006,0 hPa 0,0 l/m 1,9 km/h (1 Bft) S-SW 202 8,2 C 18,5 C 3,7 km/h (1 Bft)
19.05.2019 13:50 18,7 C 22,3 C 13,5 C 52 % 1006,0 hPa 0,0 l/m 2,3 km/h (1 Bft) S 180 8,6 C 18,7 C 3,9 km/h (1 Bft)
19.05.2019 13:48 18,8 C 23,5 C 13,5 C 52 % 1006,0 hPa 0,0 l/m 2,9 km/h (1 Bft) SW 225 8,7 C 18,8 C 2,9 km/h (1 Bft)
19.05.2019 13:46 19,0 C 24,3 C 13,5 C 51 % 1006,0 hPa 0,0 l/m 3,4 km/h (1 Bft) W 270 8,6 C 19,0 C 4,1 km/h (1 Bft)
19.05.2019 13:44 19,3 C 26,7 C 13,5 C 51 % 1006,0 hPa 0,0 l/m 3,5 km/h (1 Bft) S-SW 202 8,9 C 19,3 C 4,8 km/h (1 Bft)
19.05.2019 13:42 19,3 C 29,6 C 13,5 C 52 % 1006,0 hPa 0,0 l/m 3,5 km/h (1 Bft) S-SW 202 9,2 C 19,3 C 0,0 km/h (0 Bft)
19.05.2019 13:40 19,3 C 28,9 C 13,4 C 53 % 1006,0 hPa 0,0 l/m 4,2 km/h (1 Bft) S-SW 202 9,5 C 19,3 C 4,6 km/h (1 Bft)
19.05.2019 13:38 18,9 C 24,3 C 13,4 C 53 % 1006,2 hPa 0,0 l/m 3,9 km/h (1 Bft) S-SW 202 9,1 C 18,9 C 6,2 km/h (2 Bft)
19.05.2019 13:36 18,9 C 23,4 C 13,4 C 53 % 1006,2 hPa 0,0 l/m 3,5 km/h (1 Bft) SW 225 9,1 C 18,9 C 7,7 km/h (2 Bft)
19.05.2019 13:34 18,8 C 23,9 C 13,4 C 52 % 1006,2 hPa 0,0 l/m 3,9 km/h (1 Bft) S-SW 202 8,7 C 18,8 C 3,9 km/h (1 Bft)
19.05.2019 13:32 18,7 C 23,6 C 13,4 C 51 % 1006,2 hPa 0,0 l/m 4,5 km/h (1 Bft) S-SW 202 8,4 C 18,7 C 4,8 km/h (1 Bft)
19.05.2019 13:30 18,8 C 23,4 C 13,3 C 51 % 1006,2 hPa 0,0 l/m 4,8 km/h (1 Bft) S-SW 202 8,4 C 18,8 C 5,4 km/h (1 Bft)
19.05.2019 13:28 18,8 C 23,4 C 13,3 C 51 % 1006,2 hPa 0,0 l/m 4,3 km/h (1 Bft) S-SO 157 8,4 C 18,8 C 6,0 km/h (2 Bft)
19.05.2019 13:26 18,9 C 23,4 C 13,3 C 51 % 1006,2 hPa 0,0 l/m 4,3 km/h (1 Bft) SW 225 8,5 C 18,9 C 4,1 km/h (1 Bft)
19.05.2019 13:24 18,9 C 23,6 C 13,3 C 51 % 1006,2 hPa 0,0 l/m 4,2 km/h (1 Bft) S-SW 202 8,5 C 18,9 C 7,0 km/h (2 Bft)
19.05.2019 13:22 18,8 C 24,1 C 13,3 C 50 % 1006,2 hPa 0,0 l/m 4,0 km/h (1 Bft) S 180 8,2 C 18,8 C 7,0 km/h (2 Bft)
19.05.2019 13:20 19,2 C 24,7 C 13,1 C 51 % 1006,2 hPa 0,0 l/m 3,9 km/h (1 Bft) SW 225 8,8 C 19,2 C 8,3 km/h (2 Bft)
19.05.2019 13:18 19,5 C 26,1 C 13,1 C 51 % 1006,4 hPa 0,0 l/m 3,7 km/h (1 Bft) W 270 9,1 C 19,5 C 3,7 km/h (1 Bft)
19.05.2019 13:16 19,7 C 27,8 C 13,1 C 52 % 1006,4 hPa 0,0 l/m 4,0 km/h (1 Bft) O-SO 112 9,6 C 19,7 C 5,4 km/h (1 Bft)
19.05.2019 13:14 19,9 C 30,8 C 13,1 C 52 % 1006,4 hPa 0,0 l/m 4,7 km/h (1 Bft) W-NW 292 9,7 C 19,9 C 3,7 km/h (1 Bft)
19.05.2019 13:12 19,4 C 31,8 C 13,1 C 51 % 1006,4 hPa 0,0 l/m 5,8 km/h (2 Bft) O-NO 67 9,0 C 19,4 C 7,9 km/h (2 Bft)
19.05.2019 13:10 19,5 C 30,1 C 13,0 C 51 % 1006,4 hPa 0,0 l/m 6,0 km/h (2 Bft) S 180 9,1 C 19,5 C 5,8 km/h (2 Bft)
19.05.2019 13:08 19,8 C 31,8 C 13,0 C 51 % 1006,4 hPa 0,0 l/m 6,4 km/h (2 Bft) NO 45 9,4 C 19,8 C 5,8 km/h (2 Bft)
19.05.2019 13:06 20,0 C 31,0 C 13,0 C 51 % 1006,4 hPa 0,0 l/m 7,1 km/h (2 Bft) O-SO 112 9,6 C 19,7 C 7,7 km/h (2 Bft)
19.05.2019 13:04 19,7 C 30,8 C 13,0 C 51 % 1006,4 hPa 0,0 l/m 7,7 km/h (2 Bft) SO 135 9,3 C 19,2 C 13,1 km/h (3 Bft)
19.05.2019 13:02 19,7 C 31,6 C 12,9 C 51 % 1006,4 hPa 0,0 l/m 8,2 km/h (2 Bft) S 180 9,3 C 19,0 C 15,3 km/h (3 Bft)
19.05.2019 13:00 19,6 C 31,4 C 12,9 C 52 % 1006,4 hPa 0,0 l/m 7,7 km/h (2 Bft) S-SW 202 9,5 C 19,1 C 6,8 km/h (2 Bft)
19.05.2019 12:58 19,5 C 31,5 C 12,9 C 51 % 1006,4 hPa 0,0 l/m 8,4 km/h (2 Bft) SW 225 9,1 C 18,7 C 10,0 km/h (2 Bft)
19.05.2019 12:56 19,4 C 29,8 C 12,9 C 51 % 1006,4 hPa 0,0 l/m 8,7 km/h (2 Bft) S-SO 157 9,0 C 18,4 C 11,0 km/h (2 Bft)
19.05.2019 12:54 19,2 C 27,7 C 12,9 C 51 % 1006,4 hPa 0,0 l/m 8,7 km/h (2 Bft) S-SO 157 8,8 C 18,2 C 15,3 km/h (3 Bft)
19.05.2019 12:52 19,1 C 26,6 C 12,8 C 51 % 1006,4 hPa 0,0 l/m 8,0 km/h (2 Bft) S-SO 157 8,7 C 18,4 C 17,2 km/h (3 Bft)
19.05.2019 12:50 18,9 C 26,8 C 12,8 C 51 % 1006,4 hPa 0,0 l/m 8,0 km/h (2 Bft) N-NW 337 8,5 C 18,2 C 10,6 km/h (2 Bft)
19.05.2019 12:48 19,1 C 25,9 C 12,8 C 51 % 1006,4 hPa 0,0 l/m 8,2 km/h (2 Bft) S-SO 157 8,7 C 18,3 C 13,1 km/h (3 Bft)
19.05.2019 12:46 19,0 C 25,4 C 12,8 C 51 % 1006,4 hPa 0,0 l/m 8,4 km/h (2 Bft) SO 135 8,6 C 18,1 C 11,6 km/h (2 Bft)
19.05.2019 12:44 19,0 C 27,5 C 12,8 C 51 % 1006,4 hPa 0,0 l/m 8,4 km/h (2 Bft) S-SO 157 8,6 C 18,1 C 12,0 km/h (2 Bft)
19.05.2019 12:42 18,8 C 28,4 C 12,7 C 51 % 1006,4 hPa 0,0 l/m 8,7 km/h (2 Bft) NO 45 8,4 C 17,8 C 9,8 km/h (2 Bft)
19.05.2019 12:40 19,0 C 27,1 C 12,7 C 52 % 1006,4 hPa 0,0 l/m 8,9 km/h (2 Bft) S-SO 157 8,9 C 17,9 C 16,4 km/h (3 Bft)
19.05.2019 12:38 19,0 C 28,6 C 12,7 C 52 % 1006,8 hPa 0,0 l/m 9,2 km/h (2 Bft) S-SO 157 8,9 C 17,8 C 10,2 km/h (2 Bft)
19.05.2019 12:36 18,9 C 28,5 C 12,8 C 52 % 1006,8 hPa 0,0 l/m 9,5 km/h (2 Bft) W-NW 292 8,8 C 17,6 C 12,7 km/h (3 Bft)
19.05.2019 12:34 18,6 C 27,5 C 12,8 C 52 % 1006,8 hPa 0,0 l/m 9,2 km/h (2 Bft) O-SO 112 8,5 C 17,4 C 12,7 km/h (3 Bft)
19.05.2019 12:32 18,2 C 24,6 C 12,7 C 52 % 1006,8 hPa 0,0 l/m 8,0 km/h (2 Bft) S-SO 157 8,2 C 17,5 C 20,3 km/h (4 Bft)
19.05.2019 12:30 18,0 C 23,2 C 12,7 C 52 % 1006,8 hPa 0,0 l/m 6,6 km/h (2 Bft) S-SW 202 8,0 C 17,9 C 8,3 km/h (2 Bft)
19.05.2019 12:28 18,1 C 23,4 C 12,7 C 52 % 1006,8 hPa 0,0 l/m 6,4 km/h (2 Bft) S-SW 202 8,1 C 18,1 C 13,7 km/h (3 Bft)
19.05.2019 12:26 18,3 C 22,6 C 12,7 C 52 % 1006,8 hPa 0,0 l/m 6,6 km/h (2 Bft) S 180 8,3 C 18,2 C 13,9 km/h (3 Bft)
19.05.2019 12:24 18,7 C 23,7 C 12,7 C 53 % 1006,8 hPa 0,0 l/m 6,3 km/h (2 Bft) N-NO 22 8,9 C 18,7 C 5,8 km/h (2 Bft)
19.05.2019 12:22 18,5 C 23,9 C 12,6 C 52 % 1006,8 hPa 0,0 l/m 7,2 km/h (2 Bft) S-SW 202 8,5 C 18,1 C 3,9 km/h (1 Bft)
19.05.2019 12:20 18,6 C 24,1 C 12,5 C 52 % 1006,8 hPa 0,0 l/m 7,7 km/h (2 Bft) O 90 8,5 C 18,0 C 2,3 km/h (1 Bft)
19.05.2019 12:18 18,6 C 26,2 C 12,5 C 53 % 1006,8 hPa 0,0 l/m 7,9 km/h (2 Bft) S-SO 157 8,8 C 17,9 C 12,6 km/h (3 Bft)
19.05.2019 12:16 18,8 C 27,8 C 12,5 C 53 % 1006,8 hPa 0,0 l/m 8,0 km/h (2 Bft) S-SO 157 9,0 C 18,1 C 16,8 km/h (3 Bft)
19.05.2019 12:14 18,6 C 27,8 C 12,5 C 53 % 1006,8 hPa 0,0 l/m 8,5 km/h (2 Bft) NW 315 8,8 C 17,7 C 6,8 km/h (2 Bft)
19.05.2019 12:12 18,6 C 27,3 C 12,4 C 53 % 1006,8 hPa 0,0 l/m 9,7 km/h (2 Bft) S-SO 157 8,8 C 17,2 C 17,2 km/h (3 Bft)
19.05.2019 12:10 18,6 C 27,3 C 12,4 C 53 % 1006,8 hPa 0,0 l/m 9,7 km/h (2 Bft) S-SO 157 8,8 C 17,2 C 17,2 km/h (3 Bft)
19.05.2019 12:08 18,6 C 27,3 C 12,4 C 53 % 1006,8 hPa 0,0 l/m 9,7 km/h (2 Bft) S-SO 157 8,8 C 17,2 C 17,2 km/h (3 Bft)
19.05.2019 12:06 18,6 C 27,3 C 12,4 C 53 % 1006,8 hPa 0,0 l/m 9,7 km/h (2 Bft) S-SO 157 8,8 C 17,2 C 17,2 km/h (3 Bft)
19.05.2019 12:04 18,6 C 27,3 C 12,4 C 53 % 1006,8 hPa 0,0 l/m 9,7 km/h (2 Bft) S-SO 157 8,8 C 17,2 C 17,2 km/h (3 Bft)
19.05.2019 12:02 18,7 C 27,9 C 12,4 C 53 % 1006,8 hPa 0,0 l/m 9,3 km/h (2 Bft) SO 135 8,9 C 17,5 C 26,1 km/h (4 Bft)
19.05.2019 12:00 18,6 C 27,6 C 12,4 C 53 % 1006,8 hPa 0,0 l/m 8,5 km/h (2 Bft) S-SO 157 8,8 C 17,7 C 12,9 km/h (3 Bft)
19.05.2019 11:58 18,6 C 28,1 C 12,4 C 54 % 1006,9 hPa 0,0 l/m 8,4 km/h (2 Bft) S-SO 157 9,1 C 17,7 C 21,4 km/h (4 Bft)
19.05.2019 11:56 18,3 C 28,6 C 12,3 C 53 % 1006,9 hPa 0,0 l/m 7,7 km/h (2 Bft) SO 135 8,6 C 17,7 C 14,5 km/h (3 Bft)
19.05.2019 11:54 18,1 C 29,7 C 12,4 C 53 % 1006,9 hPa 0,0 l/m 7,9 km/h (2 Bft) SW 225 8,4 C 17,4 C 3,5 km/h (1 Bft)
19.05.2019 11:52 18,0 C 29,8 C 12,4 C 53 % 1006,9 hPa 0,0 l/m 8,7 km/h (2 Bft) O-NO 67 8,3 C 16,9 C 9,7 km/h (2 Bft)
19.05.2019 11:50 17,8 C 29,2 C 12,4 C 54 % 1006,9 hPa 0,0 l/m 8,2 km/h (2 Bft) O 90 8,4 C 17,0 C 9,8 km/h (2 Bft)
19.05.2019 11:48 17,8 C 28,0 C 12,4 C 54 % 1006,9 hPa 0,0 l/m 7,6 km/h (2 Bft) O-NO 67 8,4 C 17,2 C 12,7 km/h (3 Bft)
19.05.2019 11:46 17,5 C 27,3 C 12,4 C 54 % 1006,9 hPa 0,0 l/m 7,2 km/h (2 Bft) NO 45 8,1 C 17,1 C 16,8 km/h (3 Bft)
19.05.2019 11:44 17,6 C 26,5 C 12,2 C 54 % 1006,9 hPa 0,0 l/m 5,8 km/h (2 Bft) O-NO 67 8,2 C 17,6 C 23,9 km/h (4 Bft)
19.05.2019 11:42 17,5 C 26,8 C 12,2 C 54 % 1006,9 hPa 0,0 l/m 6,0 km/h (2 Bft) O 90 8,1 C 17,5 C 13,3 km/h (3 Bft)
19.05.2019 11:40 17,6 C 27,3 C 12,3 C 54 % 1006,9 hPa 0,0 l/m 5,6 km/h (1 Bft) NO 45 8,2 C 17,6 C 7,1 km/h (2 Bft)
19.05.2019 11:38 17,4 C 26,0 C 12,3 C 54 % 1007,0 hPa 0,0 l/m 6,9 km/h (2 Bft) O-NO 67 8,0 C 17,2 C 15,1 km/h (3 Bft)
19.05.2019 11:36 17,5 C 24,9 C 12,3 C 55 % 1007,0 hPa 0,0 l/m 6,6 km/h (2 Bft) N-NO 22 8,4 C 17,4 C 6,8 km/h (2 Bft)
19.05.2019 11:34 16,9 C 23,9 C 12,3 C 54 % 1007,0 hPa 0,0 l/m 6,4 km/h (2 Bft) O-NO 67 7,5 C 16,9 C 7,0 km/h (2 Bft)
19.05.2019 11:32 17,0 C 23,4 C 12,3 C 54 % 1007,0 hPa 0,0 l/m 6,4 km/h (2 Bft) W-NW 292 7,6 C 17,0 C 10,0 km/h (2 Bft)
19.05.2019 11:30 16,9 C 24,8 C 12,2 C 55 % 1007,0 hPa 0,0 l/m 6,0 km/h (2 Bft) N-NO 22 7,8 C 16,9 C 3,7 km/h (1 Bft)
19.05.2019 11:28 17,0 C 24,8 C 12,2 C 55 % 1007,0 hPa 0,0 l/m 6,0 km/h (2 Bft) O-NO 67 7,9 C 17,0 C 18,5 km/h (3 Bft)
19.05.2019 11:26 17,1 C 23,9 C 12,2 C 55 % 1007,0 hPa 0,0 l/m 4,7 km/h (1 Bft) O-NO 67 8,0 C 17,1 C 7,3 km/h (2 Bft)
19.05.2019 11:24 16,6 C 20,8 C 12,2 C 55 % 1007,0 hPa 0,0 l/m 4,7 km/h (1 Bft) S-SO 157 7,5 C 16,6 C 5,0 km/h (1 Bft)
19.05.2019 11:22 16,4 C 19,5 C 12,2 C 55 % 1007,0 hPa 0,0 l/m 4,2 km/h (1 Bft) O 90 7,3 C 16,4 C 5,4 km/h (1 Bft)
19.05.2019 11:20 16,3 C 19,6 C 12,2 C 55 % 1007,0 hPa 0,0 l/m 3,7 km/h (1 Bft) O 90 7,2 C 16,3 C 6,6 km/h (2 Bft)
19.05.2019 11:18 16,2 C 19,1 C 12,2 C 56 % 1006,9 hPa 0,0 l/m 3,2 km/h (1 Bft) O-NO 67 7,4 C 16,2 C 9,1 km/h (2 Bft)
19.05.2019 11:16 16,3 C 19,0 C 12,2 C 56 % 1006,9 hPa 0,0 l/m 1,9 km/h (1 Bft) O-SO 112 7,5 C 16,3 C 3,5 km/h (1 Bft)
19.05.2019 11:14 16,3 C 19,1 C 12,2 C 57 % 1006,9 hPa 0,0 l/m 1,8 km/h (1 Bft) W-SW 247 7,8 C 16,3 C 3,7 km/h (1 Bft)
19.05.2019 11:12 16,5 C 19,2 C 12,1 C 57 % 1006,9 hPa 0,0 l/m 1,3 km/h (1 Bft) O-NO 67 8,0 C 16,5 C 5,8 km/h (2 Bft)
19.05.2019 11:10 16,4 C 19,1 C 12,1 C 57 % 1006,9 hPa 0,0 l/m 2,1 km/h (1 Bft) N-NW 337 7,9 C 16,4 C 0,0 km/h (0 Bft)
19.05.2019 11:08 16,3 C 18,6 C 12,1 C 57 % 1006,9 hPa 0,0 l/m 2,9 km/h (1 Bft) SO 135 7,8 C 16,3 C 2,1 km/h (1 Bft)
19.05.2019 11:06 16,3 C 18,2 C 12,2 C 57 % 1006,9 hPa 0,0 l/m 3,4 km/h (1 Bft) NW 315 7,8 C 16,3 C 0,0 km/h (0 Bft)
19.05.2019 11:04 16,2 C 17,8 C 12,2 C 57 % 1006,9 hPa 0,0 l/m 3,5 km/h (1 Bft) N 360 7,7 C 16,2 C 3,3 km/h (1 Bft)
19.05.2019 11:02 16,1 C 17,5 C 12,2 C 57 % 1006,9 hPa 0,0 l/m 3,7 km/h (1 Bft) N-NW 337 7,6 C 16,1 C 5,0 km/h (1 Bft)
19.05.2019 11:00 16,1 C 17,8 C 12,2 C 57 % 1006,9 hPa 0,0 l/m 3,4 km/h (1 Bft) O 90 7,6 C 16,1 C 4,6 km/h (1 Bft)
19.05.2019 10:58 16,2 C 17,9 C 12,2 C 57 % 1006,9 hPa 0,0 l/m 2,9 km/h (1 Bft) O-SO 112 7,7 C 16,2 C 10,6 km/h (2 Bft)
19.05.2019 10:56 16,2 C 17,9 C 12,2 C 58 % 1006,9 hPa 0,0 l/m 3,5 km/h (1 Bft) NW 315 7,9 C 16,2 C 3,7 km/h (1 Bft)
19.05.2019 10:54 16,2 C 17,9 C 12,2 C 58 % 1006,9 hPa 0,0 l/m 4,0 km/h (1 Bft) NW 315 7,9 C 16,2 C 0,0 km/h (0 Bft)
19.05.2019 10:52 16,1 C 18,1 C 12,2 C 57 % 1006,9 hPa 0,0 l/m 5,3 km/h (1 Bft) SW 225 7,6 C 16,1 C 2,7 km/h (1 Bft)
19.05.2019 10:50 16,0 C 18,1 C 12,2 C 58 % 1006,9 hPa 0,0 l/m 5,0 km/h (1 Bft) N-NO 22 7,7 C 16,0 C 7,3 km/h (2 Bft)
19.05.2019 10:48 15,9 C 17,5 C 12,2 C 59 % 1006,9 hPa 0,0 l/m 4,5 km/h (1 Bft) NW 315 7,9 C 15,9 C 3,5 km/h (1 Bft)
19.05.2019 10:46 15,8 C 17,3 C 12,0 C 59 % 1006,9 hPa 0,0 l/m 4,8 km/h (1 Bft) O-NO 67 7,8 C 15,8 C 9,8 km/h (2 Bft)
19.05.2019 10:44 15,8 C 17,6 C 12,0 C 60 % 1006,9 hPa 0,0 l/m 4,5 km/h (1 Bft) SO 135 8,1 C 15,8 C 9,3 km/h (2 Bft)
19.05.2019 10:42 15,8 C 17,2 C 12,0 C 60 % 1006,9 hPa 0,0 l/m 4,0 km/h (1 Bft) O-NO 67 8,1 C 15,8 C 6,6 km/h (2 Bft)
19.05.2019 10:40 15,8 C 17,2 C 12,0 C 61 % 1006,9 hPa 0,0 l/m 4,2 km/h (1 Bft) O 90 8,3 C 15,8 C 3,7 km/h (1 Bft)
19.05.2019 10:38 15,8 C 17,0 C 12,0 C 60 % 1006,9 hPa 0,0 l/m 4,2 km/h (1 Bft) O-NO 67 8,1 C 15,8 C 4,4 km/h (1 Bft)
19.05.2019 10:36 15,7 C 16,9 C 12,0 C 60 % 1006,9 hPa 0,0 l/m 3,5 km/h (1 Bft) SO 135 8,0 C 15,7 C 12,6 km/h (3 Bft)
19.05.2019 10:34 15,7 C 16,7 C 12,0 C 60 % 1006,9 hPa 0,0 l/m 3,2 km/h (1 Bft) O-NO 67 8,0 C 15,7 C 5,2 km/h (1 Bft)
19.05.2019 10:32 15,7 C 16,7 C 12,0 C 60 % 1006,9 hPa 0,0 l/m 3,4 km/h (1 Bft) O-NO 67 8,0 C 15,7 C 12,2 km/h (2 Bft)
19.05.2019 10:30 15,7 C 16,7 C 12,0 C 61 % 1006,9 hPa 0,0 l/m 3,2 km/h (1 Bft) O-SO 112 8,2 C 15,7 C 7,3 km/h (2 Bft)
19.05.2019 10:28 15,7 C 16,9 C 12,0 C 61 % 1006,9 hPa 0,0 l/m 2,9 km/h (1 Bft) W-NW 292 8,2 C 15,7 C 3,5 km/h (1 Bft)
19.05.2019 10:26 15,7 C 17,1 C 12,0 C 61 % 1006,9 hPa 0,0 l/m 2,7 km/h (1 Bft) O 90 8,2 C 15,7 C 0,0 km/h (0 Bft)
19.05.2019 10:24 15,7 C 16,9 C 12,0 C 61 % 1006,9 hPa 0,0 l/m 2,9 km/h (1 Bft) W-SW 247 8,2 C 15,7 C 5,0 km/h (1 Bft)
19.05.2019 10:22 15,7 C 17,2 C 11,9 C 61 % 1006,9 hPa 0,0 l/m 2,1 km/h (1 Bft) NO 45 8,2 C 15,7 C 15,1 km/h (3 Bft)
19.05.2019 10:20 15,8 C 17,9 C 11,9 C 62 % 1006,9 hPa 0,0 l/m 1,3 km/h (1 Bft) W 270 8,5 C 15,8 C 5,2 km/h (1 Bft)
19.05.2019 10:18 15,7 C 18,4 C 11,9 C 62 % 1007,0 hPa 0,0 l/m 1,6 km/h (1 Bft) NO 45 8,4 C 15,7 C 1,9 km/h (1 Bft)
19.05.2019 10:16 15,7 C 18,6 C 11,9 C 63 % 1007,0 hPa 0,0 l/m 1,6 km/h (1 Bft) S-SW 202 8,7 C 15,7 C 0,0 km/h (0 Bft)
19.05.2019 10:14 15,7 C 18,6 C 11,9 C 63 % 1007,0 hPa 0,0 l/m 1,4 km/h (1 Bft) S-SO 157 8,7 C 15,7 C 1,9 km/h (1 Bft)
19.05.2019 10:12 15,6 C 18,6 C 11,9 C 62 % 1007,0 hPa 0,0 l/m 1,4 km/h (1 Bft) S-SW 202 8,3 C 15,6 C 2,9 km/h (1 Bft)
19.05.2019 10:10 15,5 C 18,4 C 11,9 C 63 % 1007,0 hPa 0,0 l/m 1,3 km/h (1 Bft) O-NO 67 8,5 C 15,5 C 3,7 km/h (1 Bft)
19.05.2019 10:08 15,5 C 18,5 C 11,9 C 63 % 1007,0 hPa 0,0 l/m 0,8 km/h (0 Bft) O-SO 112 8,5 C 15,5 C 5,2 km/h (1 Bft)
19.05.2019 10:06 15,4 C 18,1 C 11,9 C 63 % 1007,0 hPa 0,0 l/m 0,6 km/h (0 Bft) S-SW 202 8,4 C 15,4 C 0,0 km/h (0 Bft)
19.05.2019 10:04 15,3 C 17,7 C 11,9 C 63 % 1007,0 hPa 0,0 l/m 0,6 km/h (0 Bft) W-NW 292 8,3 C 15,3 C 2,1 km/h (1 Bft)
19.05.2019 10:02 15,1 C 17,4 C 11,9 C 65 % 1007,0 hPa 0,0 l/m 1,4 km/h (1 Bft) O-SO 112 8,6 C 15,1 C 4,6 km/h (1 Bft)
19.05.2019 10:00 15,0 C 17,1 C 11,8 C 65 % 1007,0 hPa 0,0 l/m 2,7 km/h (1 Bft) S-SW 202 8,5 C 15,0 C 0,0 km/h (0 Bft)
19.05.2019 09:58 14,9 C 16,8 C 11,8 C 64 % 1007,0 hPa 0,0 l/m 3,9 km/h (1 Bft) NO 45 8,2 C 14,9 C 0,0 km/h (0 Bft)
19.05.2019 09:56 14,8 C 16,4 C 11,8 C 64 % 1007,0 hPa 0,0 l/m 4,5 km/h (1 Bft) S-SW 202 8,1 C 14,8 C 0,0 km/h (0 Bft)
19.05.2019 09:54 14,8 C 16,4 C 11,8 C 64 % 1007,0 hPa 0,0 l/m 4,8 km/h (1 Bft) N-NO 22 8,1 C 14,8 C 0,0 km/h (0 Bft)
19.05.2019 09:52 14,7 C 16,4 C 11,8 C 65 % 1007,0 hPa 0,0 l/m 4,8 km/h (1 Bft) NW 315 8,2 C 14,7 C 8,5 km/h (2 Bft)
19.05.2019 09:50 14,8 C 16,7 C 11,8 C 65 % 1007,0 hPa 0,0 l/m 4,2 km/h (1 Bft) W-NW 292 8,3 C 14,8 C 9,7 km/h (2 Bft)
19.05.2019 09:48 14,8 C 17,0 C 11,8 C 65 % 1007,0 hPa 0,0 l/m 3,1 km/h (1 Bft) W-NW 292 8,3 C 14,8 C 6,4 km/h (2 Bft)
19.05.2019 09:46 14,8 C 17,2 C 11,8 C 65 % 1007,0 hPa 0,0 l/m 2,4 km/h (1 Bft) W-NW 292 8,3 C 14,8 C 6,2 km/h (2 Bft)
19.05.2019 09:44 14,9 C 17,5 C 11,8 C 64 % 1007,0 hPa 0,0 l/m 1,9 km/h (1 Bft) NW 315 8,2 C 14,9 C 2,3 km/h (1 Bft)
19.05.2019 09:42 14,9 C 17,7 C 11,8 C 65 % 1007,0 hPa 0,0 l/m 1,6 km/h (1 Bft) S-SW 202 8,4 C 14,9 C 7,1 km/h (2 Bft)
19.05.2019 09:40 15,0 C 17,5 C 11,8 C 65 % 1007,0 hPa 0,0 l/m 0,6 km/h (0 Bft) SW 225 8,5 C 15,0 C 6,0 km/h (2 Bft)
19.05.2019 09:38 15,0 C 17,3 C 11,7 C 64 % 1007,1 hPa 0,0 l/m 0,3 km/h (0 Bft) O-NO 67 8,2 C 15,0 C 4,2 km/h (1 Bft)
19.05.2019 09:36 14,8 C 17,6 C 11,7 C 65 % 1007,1 hPa 0,0 l/m 0,2 km/h (0 Bft) NW 315 8,3 C 14,8 C 0,0 km/h (0 Bft)
19.05.2019 09:34 14,8 C 17,5 C 11,7 C 65 % 1007,1 hPa 0,0 l/m 0,3 km/h (0 Bft) S-SO 157 8,3 C 14,8 C 0,0 km/h (0 Bft)
19.05.2019 09:32 14,8 C 17,2 C 11,7 C 65 % 1007,1 hPa 0,0 l/m 1,1 km/h (1 Bft) SO 135 8,3 C 14,8 C 0,0 km/h (0 Bft)
19.05.2019 09:30 14,7 C 17,1 C 11,7 C 64 % 1007,1 hPa 0,0 l/m 1,3 km/h (1 Bft) N 360 8,0 C 14,7 C 0,0 km/h (0 Bft)
19.05.2019 09:28 14,7 C 17,1 C 11,7 C 65 % 1007,1 hPa 0,0 l/m 1,4 km/h (1 Bft) N 360 8,2 C 14,7 C 0,0 km/h (0 Bft)
19.05.2019 09:26 14,6 C 17,0 C 11,7 C 66 % 1007,1 hPa 0,0 l/m 1,9 km/h (1 Bft) N-NO 22 8,3 C 14,6 C 0,0 km/h (0 Bft)
19.05.2019 09:24 14,5 C 17,0 C 11,7 C 66 % 1007,1 hPa 0,0 l/m 2,1 km/h (1 Bft) NO 45 8,2 C 14,5 C 2,9 km/h (1 Bft)
19.05.2019 09:22 14,7 C 17,1 C 11,7 C 66 % 1007,1 hPa 0,0 l/m 1,6 km/h (1 Bft) O-SO 112 8,4 C 14,7 C 4,2 km/h (1 Bft)
19.05.2019 09:20 14,8 C 17,0 C 11,7 C 65 % 1007,1 hPa 0,0 l/m 1,0 km/h (0 Bft) S-SO 157 8,3 C 14,8 C 3,3 km/h (1 Bft)
19.05.2019 09:18 14,7 C 17,0 C 11,6 C 66 % 1007,4 hPa 0,0 l/m 1,0 km/h (0 Bft) S-SW 202 8,4 C 14,7 C 0,0 km/h (0 Bft)
19.05.2019 09:16 14,8 C 17,1 C 11,6 C 66 % 1007,4 hPa 0,0 l/m 1,6 km/h (1 Bft) SW 225 8,5 C 14,8 C 3,9 km/h (1 Bft)
19.05.2019 09:14 14,8 C 17,4 C 11,6 C 66 % 1007,4 hPa 0,0 l/m 1,6 km/h (1 Bft) NW 315 8,5 C 14,8 C 2,1 km/h (1 Bft)
19.05.2019 09:12 14,8 C 17,3 C 11,6 C 66 % 1007,4 hPa 0,0 l/m 1,6 km/h (1 Bft) SW 225 8,5 C 14,8 C 0,0 km/h (0 Bft)
19.05.2019 09:10 14,8 C 17,3 C 11,6 C 66 % 1007,4 hPa 0,0 l/m 1,8 km/h (1 Bft) NO 45 8,5 C 14,8 C 0,0 km/h (0 Bft)
19.05.2019 09:08 14,7 C 17,5 C 11,6 C 67 % 1007,4 hPa 0,0 l/m 1,6 km/h (1 Bft) NW 315 8,6 C 14,7 C 2,3 km/h (1 Bft)
19.05.2019 09:06 14,9 C 17,7 C 11,6 C 67 % 1007,4 hPa 0,0 l/m 1,4 km/h (1 Bft) O-NO 67 8,8 C 14,9 C 5,6 km/h (1 Bft)
19.05.2019 09:04 14,9 C 17,8 C 11,6 C 67 % 1007,4 hPa 0,0 l/m 1,6 km/h (1 Bft) O 90 8,8 C 14,9 C 3,9 km/h (1 Bft)
19.05.2019 09:02 14,9 C 18,0 C 11,6 C 67 % 1007,4 hPa 0,0 l/m 1,8 km/h (1 Bft) SO 135 8,8 C 14,9 C 2,1 km/h (1 Bft)
19.05.2019 09:00 15,0 C 18,2 C 11,6 C 67 % 1007,4 hPa 0,0 l/m 2,4 km/h (1 Bft) SW 225 8,9 C 15,0 C 1,9 km/h (1 Bft)
19.05.2019 08:58 15,0 C 18,2 C 11,5 C 67 % 1007,4 hPa 0,0 l/m 2,3 km/h (1 Bft) W-NW 292 8,9 C 15,0 C 2,3 km/h (1 Bft)
19.05.2019 08:56 15,1 C 18,6 C 11,5 C 68 % 1007,4 hPa 0,0 l/m 2,1 km/h (1 Bft) S-SW 202 9,2 C 15,1 C 2,5 km/h (1 Bft)
19.05.2019 08:54 15,2 C 19,0 C 11,5 C 68 % 1007,4 hPa 0,0 l/m 2,1 km/h (1 Bft) W 270 9,3 C 15,2 C 6,0 km/h (2 Bft)
19.05.2019 08:52 15,4 C 19,5 C 11,5 C 69 % 1007,4 hPa 0,0 l/m 1,9 km/h (1 Bft) W-NW 292 9,7 C 15,4 C 4,4 km/h (1 Bft)
19.05.2019 08:50 15,7 C 20,3 C 11,5 C 69 % 1007,4 hPa 0,0 l/m 1,4 km/h (1 Bft) S-SW 202 10,0 C 15,7 C 3,5 km/h (1 Bft)
19.05.2019 08:48 15,8 C 21,6 C 11,5 C 70 % 1007,4 hPa 0,0 l/m 1,3 km/h (1 Bft) W-SW 247 10,3 C 15,8 C 0,0 km/h (0 Bft)
19.05.2019 08:46 15,7 C 21,7 C 11,6 C 71 % 1007,4 hPa 0,0 l/m 1,3 km/h (1 Bft) W-NW 292 10,5 C 15,7 C 0,0 km/h (0 Bft)
19.05.2019 08:44 15,5 C 21,4 C 11,6 C 71 % 1007,4 hPa 0,0 l/m 0,8 km/h (0 Bft) W-NW 292 10,3 C 15,5 C 3,9 km/h (1 Bft)
19.05.2019 08:42 15,2 C 20,7 C 11,6 C 71 % 1007,4 hPa 0,0 l/m 0,3 km/h (0 Bft) NW 315 10,0 C 15,2 C 3,5 km/h (1 Bft)
19.05.2019 08:40 15,1 C 20,1 C 11,5 C 71 % 1007,4 hPa 0,0 l/m 0,0 km/h (0 Bft) W-SW 247 9,9 C 15,1 C 3,1 km/h (1 Bft)
19.05.2019 08:38 14,8 C 19,4 C 11,5 C 72 % 1007,4 hPa 0,0 l/m 0,2 km/h (0 Bft) N-NO 22 9,8 C 14,8 C 0,0 km/h (0 Bft)
19.05.2019 08:36 14,5 C 18,6 C 11,5 C 72 % 1007,4 hPa 0,0 l/m 0,3 km/h (0 Bft) N 360 9,5 C 14,5 C 0,0 km/h (0 Bft)
19.05.2019 08:34 14,2 C 18,4 C 11,5 C 72 % 1007,4 hPa 0,0 l/m 0,3 km/h (0 Bft) SW 225 9,2 C 14,2 C 0,0 km/h (0 Bft)
19.05.2019 08:32 14,0 C 18,6 C 11,5 C 73 % 1007,4 hPa 0,0 l/m 0,3 km/h (0 Bft) W-NW 292 9,2 C 14,0 C 0,0 km/h (0 Bft)
19.05.2019 08:30 13,9 C 19,3 C 11,5 C 74 % 1007,4 hPa 0,0 l/m 0,3 km/h (0 Bft) SO 135 9,3 C 13,9 C 0,0 km/h (0 Bft)
19.05.2019 08:28 13,7 C 19,1 C 11,5 C 74 % 1007,4 hPa 0,0 l/m 0,3 km/h (0 Bft) NO 45 9,2 C 13,7 C 2,3 km/h (1 Bft)
19.05.2019 08:26 13,4 C 18,6 C 11,5 C 74 % 1007,4 hPa 0,0 l/m 0,0 km/h (0 Bft) O-NO 67 8,9 C 13,4 C 0,0 km/h (0 Bft)
19.05.2019 08:24 13,0 C 17,9 C 11,5 C 75 % 1007,4 hPa 0,0 l/m 0,0 km/h (0 Bft) O 90 8,7 C 13,0 C 0,0 km/h (0 Bft)
19.05.2019 08:22 12,6 C 16,9 C 11,5 C 77 % 1007,4 hPa 0,0 l/m 0,2 km/h (0 Bft) S-SO 157 8,7 C 12,6 C 0,0 km/h (0 Bft)
19.05.2019 08:20 12,2 C 15,5 C 11,5 C 77 % 1007,4 hPa 0,0 l/m 0,3 km/h (0 Bft) W-NW 292 8,3 C 12,2 C 0,0 km/h (0 Bft)
19.05.2019 08:18 12,1 C 14,8 C 11,5 C 77 % 1007,4 hPa 0,0 l/m 0,2 km/h (0 Bft) W-NW 292 8,2 C 12,1 C 1,9 km/h (1 Bft)
19.05.2019 08:16 11,8 C 14,6 C 11,5 C 78 % 1007,4 hPa 0,0 l/m 0,2 km/h (0 Bft) NW 315 8,1 C 11,8 C 0,0 km/h (0 Bft)
19.05.2019 08:14 11,7 C 14,3 C 11,5 C 78 % 1007,4 hPa 0,0 l/m 0,2 km/h (0 Bft) S-SW 202 8,0 C 11,7 C 0,0 km/h (0 Bft)
19.05.2019 08:12 11,7 C 14,2 C 11,4 C 78 % 1007,4 hPa 0,0 l/m 0,2 km/h (0 Bft) S-SW 202 8,0 C 11,7 C 2,1 km/h (1 Bft)
19.05.2019 08:10 11,5 C 14,1 C 11,4 C 77 % 1007,4 hPa 0,0 l/m 0,0 km/h (0 Bft) S-SW 202 7,6 C 11,5 C 0,0 km/h (0 Bft)
19.05.2019 08:08 11,4 C 13,9 C 11,4 C 77 % 1007,4 hPa 0,0 l/m 0,0 km/h (0 Bft) O-NO 67 7,5 C 11,4 C 0,0 km/h (0 Bft)
19.05.2019 08:06 11,3 C 13,9 C 11,4 C 77 % 1007,4 hPa 0,0 l/m 0,2 km/h (0 Bft) N-NO 22 7,4 C 11,3 C 0,0 km/h (0 Bft)
19.05.2019 08:04 11,1 C 13,8 C 11,4 C 78 % 1007,4 hPa 0,0 l/m 0,3 km/h (0 Bft) N-NW 337 7,4 C 11,1 C 0,0 km/h (0 Bft)
19.05.2019 08:02 10,9 C 13,6 C 11,4 C 78 % 1007,4 hPa 0,0 l/m 0,3 km/h (0 Bft) N-NW 337 7,2 C 10,9 C 0,0 km/h (0 Bft)
19.05.2019 08:00 10,9 C 13,5 C 11,4 C 78 % 1007,4 hPa 0,0 l/m 0,3 km/h (0 Bft) NW 315 7,2 C 10,9 C 0,0 km/h (0 Bft)
19.05.2019 07:58 10,9 C 13,5 C 11,4 C 78 % 1007,3 hPa 0,0 l/m 0,5 km/h (0 Bft) O-NO 67 7,2 C 10,9 C 0,0 km/h (0 Bft)
19.05.2019 07:56 10,8 C 13,3 C 11,4 C 78 % 1007,3 hPa 0,0 l/m 0,6 km/h (0 Bft) S-SO 157 7,1 C 10,8 C 2,3 km/h (1 Bft)
19.05.2019 07:54 10,7 C 13,2 C 11,4 C 78 % 1007,3 hPa 0,0 l/m 0,8 km/h (0 Bft) O-NO 67 7,0 C 10,7 C 0,0 km/h (0 Bft)
19.05.2019 07:52 10,7 C 12,9 C 11,4 C 78 % 1007,3 hPa 0,0 l/m 1,3 km/h (1 Bft) S-SO 157 7,0 C 10,7 C 0,0 km/h (0 Bft)
19.05.2019 07:50 10,6 C 12,5 C 11,4 C 79 % 1007,3 hPa 0,0 l/m 1,4 km/h (1 Bft) S-SW 202 7,1 C 10,6 C 0,0 km/h (0 Bft)
19.05.2019 07:48 10,6 C 12,2 C 11,4 C 79 % 1007,3 hPa 0,0 l/m 1,4 km/h (1 Bft) SW 225 7,1 C 10,6 C 0,0 km/h (0 Bft)
19.05.2019 07:46 10,6 C 12,2 C 11,4 C 79 % 1007,3 hPa 0,0 l/m 1,3 km/h (1 Bft) W-SW 247 7,1 C 10,6 C 2,9 km/h (1 Bft)
19.05.2019 07:44 10,6 C 12,2 C 11,4 C 79 % 1007,3 hPa 0,0 l/m 0,8 km/h (0 Bft) SW 225 7,1 C 10,6 C 2,5 km/h (1 Bft)
19.05.2019 07:42 10,6 C 12,3 C 11,4 C 79 % 1007,3 hPa 0,0 l/m 0,3 km/h (0 Bft) SW 225 7,1 C 10,6 C 3,7 km/h (1 Bft)
19.05.2019 07:40 10,7 C 12,5 C 11,4 C 79 % 1007,3 hPa 0,0 l/m 0,2 km/h (0 Bft) SW 225 7,2 C 10,7 C 2,9 km/h (1 Bft)
19.05.2019 07:38 10,7 C 12,3 C 11,4 C 79 % 1007,4 hPa 0,0 l/m 0,0 km/h (0 Bft) O-NO 67 7,2 C 10,7 C 0,0 km/h (0 Bft)
19.05.2019 07:36 10,7 C 11,9 C 11,4 C 79 % 1007,4 hPa 0,0 l/m 0,0 km/h (0 Bft) N 360 7,2 C 10,7 C 0,0 km/h (0 Bft)
19.05.2019 07:34 10,6 C 11,8 C 11,4 C 79 % 1007,4 hPa 0,0 l/m 0,0 km/h (0 Bft) SO 135 7,1 C 10,6 C 0,0 km/h (0 Bft)
19.05.2019 07:32 10,5 C 11,7 C 11,4 C 79 % 1007,4 hPa 0,0 l/m 0,0 km/h (0 Bft) O-NO 67 7,0 C 10,5 C 0,0 km/h (0 Bft)
19.05.2019 07:30 10,4 C 11,6 C 11,4 C 79 % 1007,4 hPa 0,0 l/m 0,0 km/h (0 Bft) O-SO 112 6,9 C 10,4 C 0,0 km/h (0 Bft)
19.05.2019 07:28 10,3 C 11,6 C 11,4 C 79 % 1007,4 hPa 0,0 l/m 0,0 km/h (0 Bft) O-SO 112 6,8 C 10,3 C 0,0 km/h (0 Bft)
19.05.2019 07:26 10,3 C 11,6 C 11,5 C 79 % 1007,4 hPa 0,0 l/m 0,0 km/h (0 Bft) NO 45 6,8 C 10,3 C 0,0 km/h (0 Bft)
19.05.2019 07:24 10,2 C 11,7 C 11,5 C 79 % 1007,4 hPa 0,0 l/m 0,0 km/h (0 Bft) W-NW 292 6,7 C 10,2 C 0,0 km/h (0 Bft)
19.05.2019 07:22 10,2 C 11,7 C 11,5 C 79 % 1007,4 hPa 0,0 l/m 0,3 km/h (0 Bft) O-SO 112 6,7 C 10,2 C 0,0 km/h (0 Bft)
19.05.2019 07:20 10,1 C 11,5 C 11,5 C 79 % 1007,4 hPa 0,0 l/m 0,5 km/h (0 Bft) O-SO 112 6,6 C 10,1 C 0,0 km/h (0 Bft)
19.05.2019 07:18 10,1 C 11,4 C 11,5 C 79 % 1007,4 hPa 0,0 l/m 0,5 km/h (0 Bft) O-SO 112 6,6 C 10,1 C 0,0 km/h (0 Bft)
19.05.2019 07:16 10,0 C 11,5 C 11,5 C 79 % 1007,4 hPa 0,0 l/m 0,5 km/h (0 Bft) N 360 6,5 C 10,0 C 0,0 km/h (0 Bft)
19.05.2019 07:14 10,0 C 11,5 C 11,5 C 79 % 1007,4 hPa 0,0 l/m 0,5 km/h (0 Bft) S-SO 157 6,5 C 10,0 C 0,0 km/h (0 Bft)
19.05.2019 07:12 9,9 C 11,3 C 11,5 C 79 % 1007,4 hPa 0,0 l/m 0,5 km/h (0 Bft) SO 135 6,4 C 9,9 C 2,7 km/h (1 Bft)
19.05.2019 07:10 9,9 C 11,3 C 11,5 C 79 % 1007,4 hPa 0,0 l/m 0,2 km/h (0 Bft) S-SO 157 6,4 C 9,9 C 2,9 km/h (1 Bft)
19.05.2019 07:08 9,9 C 11,2 C 11,5 C 78 % 1007,4 hPa 0,0 l/m 0,0 km/h (0 Bft) W-NW 292 6,2 C 9,9 C 0,0 km/h (0 Bft)
19.05.2019 07:06 9,8 C 11,1 C 11,5 C 78 % 1007,4 hPa 0,0 l/m 0,0 km/h (0 Bft) NW 315 6,1 C 9,8 C 0,0 km/h (0 Bft)
19.05.2019 07:04 9,8 C 11,1 C 11,5 C 78 % 1007,4 hPa 0,0 l/m 0,2 km/h (0 Bft) N-NW 337 6,1 C 9,8 C 0,0 km/h (0 Bft)
19.05.2019 07:02 9,6 C 11,0 C 11,5 C 78 % 1007,4 hPa 0,0 l/m 0,5 km/h (0 Bft) O-SO 112 6,0 C 9,6 C 0,0 km/h (0 Bft)
19.05.2019 07:00 9,6 C 10,9 C 11,5 C 78 % 1007,4 hPa 0,0 l/m 0,8 km/h (0 Bft) O-SO 112 6,0 C 9,6 C 0,0 km/h (0 Bft)
19.05.2019 06:58 9,5 C 10,8 C 11,5 C 78 % 1007,1 hPa 0,0 l/m 1,3 km/h (1 Bft) O-SO 112 5,9 C 9,5 C 0,0 km/h (0 Bft)
19.05.2019 06:56 9,4 C 10,6 C 11,5 C 78 % 1007,1 hPa 0,0 l/m 1,4 km/h (1 Bft) NO 45 5,8 C 9,4 C 1,9 km/h (1 Bft)
19.05.2019 06:54 9,4 C 10,6 C 11,5 C 78 % 1007,1 hPa 0,0 l/m 1,6 km/h (1 Bft) O-NO 67 5,8 C 9,4 C 0,0 km/h (0 Bft)
19.05.2019 06:52 9,3 C 10,5 C 11,5 C 78 % 1007,1 hPa 0,0 l/m 1,8 km/h (1 Bft) NW 315 5,7 C 9,3 C 3,3 km/h (1 Bft)
19.05.2019 06:50 9,2 C 10,1 C 11,5 C 78 % 1007,1 hPa 0,0 l/m 1,6 km/h (1 Bft) W 270 5,6 C 9,2 C 3,3 km/h (1 Bft)
19.05.2019 06:48 9,1 C 10,1 C 11,5 C 78 % 1007,1 hPa 0,0 l/m 1,4 km/h (1 Bft) SW 225 5,5 C 9,1 C 3,9 km/h (1 Bft)
19.05.2019 06:46 9,1 C 10,1 C 11,5 C 78 % 1007,1 hPa 0,0 l/m 1,4 km/h (1 Bft) S-SW 202 5,5 C 9,1 C 2,3 km/h (1 Bft)
19.05.2019 06:44 9,1 C 10,0 C 11,5 C 78 % 1007,1 hPa 0,0 l/m 1,6 km/h (1 Bft) S 180 5,5 C 9,1 C 3,1 km/h (1 Bft)
19.05.2019 06:42 9,0 C 9,9 C 11,5 C 78 % 1007,1 hPa 0,0 l/m 1,6 km/h (1 Bft) S-SO 157 5,4 C 9,0 C 0,0 km/h (0 Bft)
19.05.2019 06:40 9,1 C 9,8 C 11,5 C 77 % 1007,1 hPa 0,0 l/m 1,4 km/h (1 Bft) NW 315 5,3 C 9,1 C 2,7 km/h (1 Bft)
19.05.2019 06:38 9,1 C 9,7 C 11,5 C 77 % 1007,2 hPa 0,0 l/m 1,3 km/h (1 Bft) N-NW 337 5,3 C 9,1 C 2,5 km/h (1 Bft)
19.05.2019 06:36 9,1 C 9,7 C 11,5 C 77 % 1007,2 hPa 0,0 l/m 1,0 km/h (0 Bft) W 270 5,3 C 9,1 C 2,7 km/h (1 Bft)
19.05.2019 06:34 8,9 C 9,6 C 11,5 C 77 % 1007,2 hPa 0,0 l/m 0,8 km/h (0 Bft) O-SO 112 5,1 C 8,9 C 6,2 km/h (2 Bft)
19.05.2019 06:32 8,9 C 9,4 C 11,5 C 77 % 1007,2 hPa 0,0 l/m 0,5 km/h (0 Bft) SO 135 5,1 C 8,9 C 5,2 km/h (1 Bft)
19.05.2019 06:30 8,9 C 9,2 C 11,5 C 77 % 1007,2 hPa 0,0 l/m 0,3 km/h (0 Bft) NO 45 5,1 C 8,9 C 0,0 km/h (0 Bft)
19.05.2019 06:28 8,8 C 9,2 C 11,5 C 77 % 1007,2 hPa 0,0 l/m 0,5 km/h (0 Bft) N-NO 22 5,0 C 8,8 C 0,0 km/h (0 Bft)
19.05.2019 06:26 8,7 C 9,0 C 11,5 C 77 % 1007,2 hPa 0,0 l/m 0,6 km/h (0 Bft) N 360 4,9 C 8,7 C 0,0 km/h (0 Bft)
19.05.2019 06:24 8,6 C 9,0 C 11,5 C 76 % 1007,2 hPa 0,0 l/m 0,6 km/h (0 Bft) O-NO 67 4,6 C 8,6 C 0,0 km/h (0 Bft)
19.05.2019 06:22 8,7 C 9,1 C 11,5 C 76 % 1007,2 hPa 0,0 l/m 0,6 km/h (0 Bft) S 180 4,7 C 8,7 C 0,0 km/h (0 Bft)
19.05.2019 06:20 8,7 C 9,0 C 11,5 C 76 % 1007,2 hPa 0,0 l/m 0,6 km/h (0 Bft) SW 225 4,7 C 8,7 C 1,9 km/h (1 Bft)
19.05.2019 06:18 8,7 C 9,0 C 11,5 C 76 % 1007,3 hPa 0,0 l/m 0,3 km/h (0 Bft) SW 225 4,7 C 8,7 C 2,5 km/h (1 Bft)
19.05.2019 06:16 8,7 C 9,0 C 11,5 C 76 % 1007,3 hPa 0,0 l/m 0,2 km/h (0 Bft) W 270 4,7 C 8,7 C 0,0 km/h (0 Bft)
19.05.2019 06:14 8,7 C 8,9 C 11,5 C 76 % 1007,3 hPa 0,0 l/m 0,0 km/h (0 Bft) W 270 4,7 C 8,7 C 0,0 km/h (0 Bft)
19.05.2019 06:12 8,9 C 8,4 C 11,6 C 74 % 1007,3 hPa 0,0 l/m 1,3 km/h (1 Bft) NW 315 4,5 C 8,9 C 3,3 km/h (1 Bft)
19.05.2019 06:10 8,9 C 8,4 C 11,6 C 74 % 1007,3 hPa 0,0 l/m 1,3 km/h (1 Bft) NW 315 4,5 C 8,9 C 3,3 km/h (1 Bft)
19.05.2019 06:08 8,9 C 8,4 C 11,6 C 74 % 1007,3 hPa 0,0 l/m 1,3 km/h (1 Bft) NW 315 4,5 C 8,9 C 3,3 km/h (1 Bft)
19.05.2019 06:06 8,9 C 8,4 C 11,6 C 74 % 1007,3 hPa 0,0 l/m 1,3 km/h (1 Bft) NW 315 4,5 C 8,9 C 3,3 km/h (1 Bft)
19.05.2019 06:04 8,9 C 8,4 C 11,6 C 74 % 1007,3 hPa 0,0 l/m 1,3 km/h (1 Bft) NW 315 4,5 C 8,9 C 3,3 km/h (1 Bft)
19.05.2019 06:02 8,9 C 8,4 C 11,6 C 74 % 1007,3 hPa 0,0 l/m 1,3 km/h (1 Bft) NW 315 4,5 C 8,9 C 3,5 km/h (1 Bft)
19.05.2019 06:00 8,9 C 8,4 C 11,6 C 74 % 1007,3 hPa 0,0 l/m 1,1 km/h (1 Bft) W-NW 292 4,5 C 8,9 C 2,5 km/h (1 Bft)
19.05.2019 05:58 9,0 C 8,4 C 11,6 C 74 % 1007,1 hPa 0,0 l/m 1,3 km/h (1 Bft) S-SO 157 4,6 C 9,0 C 2,5 km/h (1 Bft)
19.05.2019 05:56 9,0 C 8,3 C 11,6 C 74 % 1007,1 hPa 0,0 l/m 1,6 km/h (1 Bft) O-NO 67 4,6 C 9,0 C 0,0 km/h (0 Bft)
19.05.2019 05:54 8,9 C 8,3 C 11,6 C 74 % 1007,1 hPa 0,0 l/m 1,6 km/h (1 Bft) O-SO 112 4,5 C 8,9 C 0,0 km/h (0 Bft)
19.05.2019 05:52 8,9 C 8,3 C 11,6 C 74 % 1007,1 hPa 0,0 l/m 1,4 km/h (1 Bft) O-NO 67 4,5 C 8,9 C 3,3 km/h (1 Bft)
19.05.2019 05:50 8,9 C 8,3 C 11,6 C 73 % 1007,1 hPa 0,0 l/m 1,0 km/h (0 Bft) O-SO 112 4,3 C 8,9 C 0,0 km/h (0 Bft)
19.05.2019 05:48 8,9 C 8,3 C 11,6 C 73 % 1007,1 hPa 0,0 l/m 1,0 km/h (0 Bft) O-SO 112 4,3 C 8,9 C 1,9 km/h (1 Bft)
19.05.2019 05:46 9,0 C 8,2 C 11,6 C 72 % 1007,1 hPa 0,0 l/m 1,0 km/h (0 Bft) O-NO 67 4,2 C 9,0 C 4,1 km/h (1 Bft)
19.05.2019 05:44 9,0 C 8,2 C 11,6 C 72 % 1007,1 hPa 0,0 l/m 1,6 km/h (1 Bft) S-SW 202 4,2 C 9,0 C 0,0 km/h (0 Bft)
19.05.2019 05:42 9,1 C 8,3 C 11,6 C 71 % 1007,1 hPa 0,0 l/m 2,9 km/h (1 Bft) S-SO 157 4,1 C 9,1 C 0,0 km/h (0 Bft)
19.05.2019 05:40 9,1 C 8,3 C 11,6 C 71 % 1007,1 hPa 0,0 l/m 3,7 km/h (1 Bft) W 270 4,1 C 9,1 C 0,0 km/h (0 Bft)
19.05.2019 05:38 9,1 C 8,3 C 11,6 C 71 % 1006,9 hPa 0,0 l/m 4,2 km/h (1 Bft) O-SO 112 4,1 C 9,1 C 2,7 km/h (1 Bft)
19.05.2019 05:36 9,2 C 8,3 C 11,6 C 70 % 1006,9 hPa 0,0 l/m 5,3 km/h (1 Bft) W 270 4,0 C 9,2 C 4,2 km/h (1 Bft)
19.05.2019 05:34 9,1 C 8,4 C 11,6 C 70 % 1006,9 hPa 0,0 l/m 5,3 km/h (1 Bft) W 270 3,9 C 9,1 C 8,5 km/h (2 Bft)
19.05.2019 05:32 9,2 C 8,4 C 11,5 C 70 % 1006,9 hPa 0,0 l/m 5,0 km/h (1 Bft) W-SW 247 4,0 C 9,2 C 10,4 km/h (2 Bft)
19.05.2019 05:30 9,3 C 8,4 C 11,5 C 69 % 1006,9 hPa 0,0 l/m 4,2 km/h (1 Bft) W 270 3,9 C 9,3 C 5,6 km/h (1 Bft)
19.05.2019 05:28 9,4 C 8,4 C 11,5 C 69 % 1006,9 hPa 0,0 l/m 3,5 km/h (1 Bft) W-NW 292 4,0 C 9,4 C 6,6 km/h (2 Bft)
19.05.2019 05:26 9,5 C 8,5 C 11,6 C 68 % 1006,9 hPa 0,0 l/m 2,7 km/h (1 Bft) W-NW 292 3,9 C 9,5 C 7,5 km/h (2 Bft)
19.05.2019 05:24 9,7 C 8,4 C 11,6 C 68 % 1006,9 hPa 0,0 l/m 1,9 km/h (1 Bft) W-NW 292 4,1 C 9,7 C 5,8 km/h (2 Bft)
19.05.2019 05:22 9,9 C 8,4 C 11,6 C 68 % 1006,9 hPa 0,0 l/m 1,9 km/h (1 Bft) W-NW 292 4,3 C 9,9 C 7,9 km/h (2 Bft)
19.05.2019 05:20 10,1 C 8,5 C 11,6 C 67 % 1006,9 hPa 0,0 l/m 2,7 km/h (1 Bft) S-SO 157 4,3 C 10,1 C 3,5 km/h (1 Bft)
19.05.2019 05:18 10,2 C 8,7 C 11,6 C 66 % 1007,1 hPa 0,0 l/m 2,9 km/h (1 Bft) O 90 4,1 C 10,2 C 0,0 km/h (0 Bft)
19.05.2019 05:16 10,2 C 8,8 C 11,6 C 66 % 1007,1 hPa 0,0 l/m 3,5 km/h (1 Bft) NO 45 4,1 C 10,2 C 0,0 km/h (0 Bft)
19.05.2019 05:14 10,4 C 9,1 C 11,6 C 65 % 1007,1 hPa 0,0 l/m 4,5 km/h (1 Bft) W 270 4,1 C 10,4 C 1,9 km/h (1 Bft)
19.05.2019 05:12 10,9 C 9,5 C 11,6 C 64 % 1007,1 hPa 0,0 l/m 4,8 km/h (1 Bft) W-NW 292 4,4 C 10,9 C 7,1 km/h (2 Bft)
19.05.2019 05:10 11,3 C 9,5 C 11,6 C 63 % 1007,1 hPa 0,0 l/m 5,0 km/h (1 Bft) W-NW 292 4,5 C 11,3 C 9,3 km/h (2 Bft)
19.05.2019 05:08 11,5 C 9,7 C 11,6 C 63 % 1007,1 hPa 0,0 l/m 6,0 km/h (2 Bft) O-NO 67 4,7 C 11,5 C 2,7 km/h (1 Bft)
19.05.2019 05:06 11,9 C 10,0 C 11,6 C 63 % 1007,1 hPa 0,0 l/m 6,3 km/h (2 Bft) NW 315 5,1 C 11,9 C 9,7 km/h (2 Bft)
19.05.2019 05:04 12,9 C 10,1 C 11,6 C 63 % 1007,1 hPa 0,0 l/m 5,0 km/h (1 Bft) W-SW 247 6,0 C 12,9 C 6,2 km/h (2 Bft)
19.05.2019 05:01 13,0 C 10,4 C 11,6 C 63 % 1007,1 hPa 0,0 l/m 4,8 km/h (1 Bft) O-NO 67 6,1 C 13,0 C 7,5 km/h (2 Bft)
19.05.2019 05:00 13,0 C 10,3 C 11,6 C 63 % 1007,1 hPa 0,0 l/m 5,0 km/h (1 Bft) S-SO 157 6,1 C 13,0 C 8,7 km/h (2 Bft)
19.05.2019 04:58 12,6 C 10,0 C 11,6 C 63 % 1007,0 hPa 0,0 l/m 4,0 km/h (1 Bft) SO 135 5,7 C 12,6 C 7,7 km/h (2 Bft)
19.05.2019 04:56 12,7 C 10,0 C 11,6 C 63 % 1007,0 hPa 0,0 l/m 3,9 km/h (1 Bft) S-SW 202 5,8 C 12,7 C 5,8 km/h (2 Bft)
19.05.2019 04:54 12,8 C 10,2 C 11,6 C 63 % 1007,0 hPa 0,0 l/m 3,7 km/h (1 Bft) O-NO 67 5,9 C 12,8 C 0,0 km/h (0 Bft)
19.05.2019 04:52 12,3 C 10,0 C 11,6 C 65 % 1007,0 hPa 0,0 l/m 3,9 km/h (1 Bft) NO 45 5,9 C 12,3 C 7,1 km/h (2 Bft)
19.05.2019 04:50 11,8 C 9,5 C 11,6 C 65 % 1007,0 hPa 0,0 l/m 4,0 km/h (1 Bft) O 90 5,4 C 11,8 C 14,1 km/h (3 Bft)
19.05.2019 04:48 11,8 C 9,0 C 11,6 C 65 % 1007,0 hPa 0,0 l/m 4,0 km/h (1 Bft) O 90 5,4 C 11,8 C 16,2 km/h (3 Bft)
19.05.2019 04:46 11,6 C 8,8 C 11,6 C 65 % 1007,0 hPa 0,0 l/m 3,9 km/h (1 Bft) O-SO 112 5,2 C 11,6 C 7,0 km/h (2 Bft)
19.05.2019 04:44 11,1 C 8,8 C 11,6 C 65 % 1007,0 hPa 0,0 l/m 4,2 km/h (1 Bft) O-NO 67 4,8 C 11,1 C 0,0 km/h (0 Bft)
19.05.2019 04:42 11,3 C 8,9 C 11,6 C 64 % 1007,0 hPa 0,0 l/m 5,3 km/h (1 Bft) S-SO 157 4,7 C 11,3 C 3,1 km/h (1 Bft)
19.05.2019 04:40 11,5 C 8,9 C 11,6 C 63 % 1007,0 hPa 0,0 l/m 5,5 km/h (1 Bft) W 270 4,7 C 11,5 C 6,6 km/h (2 Bft)
19.05.2019 04:38 11,6 C 9,2 C 11,7 C 63 % 1007,2 hPa 0,0 l/m 5,8 km/h (2 Bft) W-SW 247 4,8 C 11,6 C 6,6 km/h (2 Bft)
19.05.2019 04:36 11,9 C 9,7 C 11,7 C 63 % 1007,2 hPa 0,0 l/m 5,3 km/h (1 Bft) SW 225 5,1 C 11,9 C 9,3 km/h (2 Bft)
19.05.2019 04:34 12,3 C 10,0 C 11,7 C 63 % 1007,2 hPa 0,0 l/m 6,0 km/h (2 Bft) W 270 5,5 C 12,3 C 8,7 km/h (2 Bft)
19.05.2019 04:32 12,8 C 10,2 C 11,7 C 63 % 1007,2 hPa 0,0 l/m 6,4 km/h (2 Bft) SW 225 5,9 C 12,8 C 11,0 km/h (2 Bft)
19.05.2019 04:30 13,0 C 10,4 C 11,7 C 62 % 1007,2 hPa 0,0 l/m 6,3 km/h (2 Bft) SO 135 5,9 C 13,0 C 4,2 km/h (1 Bft)
19.05.2019 04:28 12,9 C 10,4 C 11,7 C 63 % 1007,2 hPa 0,0 l/m 6,0 km/h (2 Bft) SO 135 6,0 C 12,9 C 17,8 km/h (3 Bft)
19.05.2019 04:26 13,0 C 10,4 C 11,7 C 62 % 1007,2 hPa 0,0 l/m 5,8 km/h (2 Bft) NW 315 5,9 C 13,0 C 4,2 km/h (1 Bft)
19.05.2019 04:24 13,1 C 10,1 C 11,7 C 62 % 1007,2 hPa 0,0 l/m 6,1 km/h (2 Bft) SO 135 6,0 C 13,1 C 13,9 km/h (3 Bft)
19.05.2019 04:22 13,0 C 10,1 C 11,7 C 62 % 1007,2 hPa 0,0 l/m 5,1 km/h (1 Bft) O-NO 67 5,9 C 13,0 C 20,1 km/h (4 Bft)
19.05.2019 04:20 13,0 C 10,4 C 11,7 C 62 % 1007,2 hPa 0,0 l/m 6,0 km/h (2 Bft) S 180 5,9 C 13,0 C 12,4 km/h (3 Bft)
19.05.2019 04:18 13,0 C 10,6 C 11,7 C 62 % 1007,0 hPa 0,0 l/m 6,1 km/h (2 Bft) NW 315 5,9 C 13,0 C 5,4 km/h (1 Bft)
19.05.2019 04:16 13,0 C 10,7 C 11,7 C 62 % 1007,0 hPa 0,0 l/m 6,4 km/h (2 Bft) W 270 5,9 C 13,0 C 3,1 km/h (1 Bft)
19.05.2019 04:14 13,0 C 10,9 C 11,7 C 62 % 1007,0 hPa 0,0 l/m 7,2 km/h (2 Bft) NW 315 5,9 C 12,5 C 13,5 km/h (3 Bft)
19.05.2019 04:12 13,0 C 11,0 C 11,7 C 63 % 1007,0 hPa 0,0 l/m 8,5 km/h (2 Bft) S-SO 157 6,1 C 11,7 C 10,0 km/h (2 Bft)
19.05.2019 04:10 13,0 C 11,1 C 11,7 C 63 % 1007,0 hPa 0,0 l/m 9,2 km/h (2 Bft) NO 45 6,1 C 11,3 C 17,6 km/h (3 Bft)
19.05.2019 04:08 13,0 C 11,0 C 11,7 C 63 % 1007,0 hPa 0,0 l/m 8,2 km/h (2 Bft) SW 225 6,1 C 11,9 C 14,3 km/h (3 Bft)
19.05.2019 04:06 13,1 C 10,9 C 11,7 C 63 % 1007,0 hPa 0,0 l/m 7,4 km/h (2 Bft) W-NW 292 6,2 C 12,5 C 7,0 km/h (2 Bft)
19.05.2019 04:04 13,0 C 10,8 C 11,7 C 63 % 1007,0 hPa 0,0 l/m 7,4 km/h (2 Bft) S-SO 157 6,1 C 12,4 C 12,7 km/h (3 Bft)
19.05.2019 04:02 12,4 C 10,1 C 11,7 C 63 % 1007,0 hPa 0,0 l/m 5,6 km/h (1 Bft) S 180 5,6 C 12,4 C 22,4 km/h (4 Bft)
19.05.2019 04:00 11,9 C 10,1 C 11,7 C 64 % 1007,0 hPa 0,0 l/m 3,9 km/h (1 Bft) SW 225 5,3 C 11,9 C 9,5 km/h (2 Bft)
19.05.2019 03:58 12,5 C 10,3 C 11,7 C 63 % 1007,2 hPa 0,0 l/m 3,9 km/h (1 Bft) S-SW 202 5,7 C 12,5 C 5,0 km/h (1 Bft)
19.05.2019 03:56 12,4 C 10,3 C 11,7 C 63 % 1007,2 hPa 0,0 l/m 4,8 km/h (1 Bft) W 270 5,6 C 12,4 C 4,1 km/h (1 Bft)
19.05.2019 03:54 12,5 C 10,5 C 11,7 C 63 % 1007,2 hPa 0,0 l/m 5,3 km/h (1 Bft) S-SW 202 5,7 C 12,5 C 4,4 km/h (1 Bft)
19.05.2019 03:52 12,7 C 10,7 C 11,7 C 63 % 1007,2 hPa 0,0 l/m 6,4 km/h (2 Bft) NW 315 5,8 C 12,7 C 9,8 km/h (2 Bft)
19.05.2019 03:50 12,7 C 11,1 C 11,7 C 63 % 1007,2 hPa 0,0 l/m 6,3 km/h (2 Bft) W-NW 292 5,8 C 12,7 C 7,7 km/h (2 Bft)
19.05.2019 03:48 12,8 C 11,0 C 11,7 C 63 % 1007,2 hPa 0,0 l/m 6,3 km/h (2 Bft) NW 315 5,9 C 12,8 C 5,8 km/h (2 Bft)
19.05.2019 03:46 12,7 C 11,1 C 11,7 C 63 % 1007,2 hPa 0,0 l/m 6,6 km/h (2 Bft) SO 135 5,8 C 12,6 C 7,3 km/h (2 Bft)
19.05.2019 03:44 12,6 C 10,8 C 11,7 C 64 % 1007,2 hPa 0,0 l/m 6,9 km/h (2 Bft) SW 225 6,0 C 12,3 C 10,2 km/h (2 Bft)
19.05.2019 03:42 12,0 C 10,8 C 11,7 C 64 % 1007,2 hPa 0,0 l/m 6,8 km/h (2 Bft) O 90 5,4 C 11,7 C 25,3 km/h (4 Bft)
19.05.2019 03:40 12,6 C 11,0 C 11,7 C 64 % 1007,2 hPa 0,0 l/m 5,1 km/h (1 Bft) W 270 6,0 C 12,6 C 3,9 km/h (1 Bft)
19.05.2019 03:38 12,7 C 10,8 C 11,7 C 65 % 1007,4 hPa 0,0 l/m 5,5 km/h (1 Bft) NO 45 6,3 C 12,7 C 9,8 km/h (2 Bft)
19.05.2019 03:36 12,2 C 10,6 C 11,7 C 65 % 1007,4 hPa 0,0 l/m 5,3 km/h (1 Bft) O 90 5,8 C 12,2 C 7,3 km/h (2 Bft)
19.05.2019 03:34 12,4 C 10,7 C 11,7 C 65 % 1007,4 hPa 0,0 l/m 5,1 km/h (1 Bft) S-SW 202 6,0 C 12,4 C 8,9 km/h (2 Bft)
19.05.2019 03:32 11,9 C 10,1 C 11,7 C 66 % 1007,4 hPa 0,0 l/m 4,5 km/h (1 Bft) O-NO 67 5,8 C 11,9 C 15,3 km/h (3 Bft)
19.05.2019 03:30 11,8 C 10,4 C 11,7 C 66 % 1007,4 hPa 0,0 l/m 4,8 km/h (1 Bft) NO 45 5,7 C 11,8 C 0,0 km/h (0 Bft)
19.05.2019 03:28 11,9 C 10,5 C 11,7 C 66 % 1007,4 hPa 0,0 l/m 4,8 km/h (1 Bft) SW 225 5,8 C 11,9 C 6,6 km/h (2 Bft)
19.05.2019 03:26 11,7 C 9,6 C 11,7 C 67 % 1007,4 hPa 0,0 l/m 4,7 km/h (1 Bft) SO 135 5,8 C 11,7 C 13,9 km/h (3 Bft)
19.05.2019 03:24 10,5 C 8,9 C 11,7 C 67 % 1007,4 hPa 0,0 l/m 4,5 km/h (1 Bft) S-SO 157 4,6 C 10,5 C 14,7 km/h (3 Bft)
19.05.2019 03:22 10,3 C 8,5 C 11,8 C 66 % 1007,4 hPa 0,0 l/m 5,0 km/h (1 Bft) W-NW 292 4,2 C 10,3 C 3,5 km/h (1 Bft)
19.05.2019 03:20 9,9 C 8,3 C 11,8 C 66 % 1007,4 hPa 0,0 l/m 6,0 km/h (2 Bft) O-NO 67 3,9 C 9,9 C 2,1 km/h (1 Bft)
19.05.2019 03:18 9,6 C 8,4 C 11,8 C 66 % 1007,5 hPa 0,0 l/m 7,6 km/h (2 Bft) S-SO 157 3,6 C 8,7 C 0,0 km/h (0 Bft)
19.05.2019 03:16 9,8 C 8,6 C 11,8 C 64 % 1007,5 hPa 0,0 l/m 8,4 km/h (2 Bft) W 270 3,3 C 8,4 C 11,0 km/h (2 Bft)
19.05.2019 03:14 10,3 C 8,9 C 11,8 C 63 % 1007,5 hPa 0,0 l/m 8,9 km/h (2 Bft) SW 225 3,6 C 8,6 C 7,3 km/h (2 Bft)
19.05.2019 03:12 12,5 C 10,2 C 11,8 C 62 % 1007,5 hPa 0,0 l/m 5,8 km/h (2 Bft) W-SW 247 5,4 C 12,5 C 10,6 km/h (2 Bft)
19.05.2019 03:10 12,5 C 10,2 C 11,8 C 62 % 1007,5 hPa 0,0 l/m 5,8 km/h (2 Bft) W-SW 247 5,4 C 12,5 C 10,6 km/h (2 Bft)
19.05.2019 03:08 12,5 C 10,2 C 11,8 C 62 % 1007,5 hPa 0,0 l/m 5,8 km/h (2 Bft) W-SW 247 5,4 C 12,5 C 10,6 km/h (2 Bft)
19.05.2019 03:06 12,5 C 10,2 C 11,8 C 62 % 1007,5 hPa 0,0 l/m 5,8 km/h (2 Bft) W-SW 247 5,4 C 12,5 C 10,6 km/h (2 Bft)
19.05.2019 03:04 12,5 C 10,2 C 11,8 C 62 % 1007,5 hPa 0,0 l/m 5,8 km/h (2 Bft) W-SW 247 5,4 C 12,5 C 10,6 km/h (2 Bft)
19.05.2019 03:02 12,5 C 10,3 C 11,8 C 62 % 1007,5 hPa 0,0 l/m 5,6 km/h (1 Bft) W-NW 292 5,4 C 12,5 C 12,2 km/h (2 Bft)
19.05.2019 03:00 12,8 C 10,5 C 11,8 C 62 % 1007,5 hPa 0,0 l/m 5,8 km/h (2 Bft) S-SW 202 5,7 C 12,8 C 5,0 km/h (1 Bft)
19.05.2019 02:58 13,1 C 10,7 C 11,8 C 61 % 1007,4 hPa 0,0 l/m 6,1 km/h (2 Bft) SW 225 5,8 C 13,1 C 4,4 km/h (1 Bft)
19.05.2019 02:56 13,3 C 10,7 C 11,9 C 61 % 1007,4 hPa 0,0 l/m 6,6 km/h (2 Bft) O-SO 112 5,9 C 13,2 C 10,0 km/h (2 Bft)
19.05.2019 02:54 13,1 C 10,3 C 11,9 C 61 % 1007,4 hPa 0,0 l/m 6,3 km/h (2 Bft) SO 135 5,8 C 13,1 C 8,9 km/h (2 Bft)
19.05.2019 02:52 13,1 C 10,1 C 11,9 C 61 % 1007,4 hPa 0,0 l/m 6,3 km/h (2 Bft) W 270 5,8 C 13,1 C 5,4 km/h (1 Bft)
19.05.2019 02:50 12,9 C 9,8 C 11,9 C 62 % 1007,4 hPa 0,0 l/m 5,5 km/h (1 Bft) S-SO 157 5,8 C 12,9 C 8,3 km/h (2 Bft)
19.05.2019 02:48 13,0 C 10,0 C 11,9 C 61 % 1007,4 hPa 0,0 l/m 5,8 km/h (2 Bft) O-SO 112 5,7 C 13,0 C 18,9 km/h (3 Bft)
19.05.2019 02:46 13,1 C 9,9 C 11,9 C 61 % 1007,4 hPa 0,0 l/m 6,4 km/h (2 Bft) O-NO 67 5,8 C 13,1 C 7,0 km/h (2 Bft)
19.05.2019 02:44 13,1 C 10,1 C 11,9 C 61 % 1007,4 hPa 0,0 l/m 6,9 km/h (2 Bft) NW 315 5,8 C 12,8 C 7,5 km/h (2 Bft)
19.05.2019 02:42 13,0 C 10,3 C 11,9 C 61 % 1007,4 hPa 0,0 l/m 8,4 km/h (2 Bft) SW 225 5,7 C 11,8 C 10,4 km/h (2 Bft)
19.05.2019 02:40 13,3 C 10,5 C 11,9 C 61 % 1007,4 hPa 0,0 l/m 9,5 km/h (2 Bft) W 270 5,9 C 11,5 C 2,3 km/h (1 Bft)
19.05.2019 02:38 13,3 C 10,8 C 11,9 C 61 % 1007,8 hPa 0,0 l/m 10,8 km/h (2 Bft) O 90 5,9 C 10,9 C 11,8 km/h (2 Bft)
19.05.2019 02:36 13,3 C 11,1 C 11,9 C 61 % 1007,8 hPa 0,0 l/m 11,1 km/h (2 Bft) O-NO 67 5,9 C 10,7 C 25,7 km/h (4 Bft)
19.05.2019 02:34 13,7 C 11,4 C 11,9 C 61 % 1007,8 hPa 0,0 l/m 12,4 km/h (3 Bft) S 180 6,3 C 10,6 C 10,0 km/h (2 Bft)
19.05.2019 02:32 13,7 C 11,5 C 11,9 C 61 % 1007,8 hPa 0,0 l/m 13,0 km/h (3 Bft) SO 135 6,3 C 10,4 C 19,5 km/h (3 Bft)
19.05.2019 02:30 13,7 C 11,6 C 11,9 C 61 % 1007,8 hPa 0,0 l/m 13,4 km/h (3 Bft) SO 135 6,3 C 10,2 C 17,4 km/h (3 Bft)
19.05.2019 02:28 13,7 C 11,6 C 11,9 C 61 % 1007,8 hPa 0,0 l/m 12,9 km/h (3 Bft) S-SO 157 6,3 C 10,4 C 15,4 km/h (3 Bft)
19.05.2019 02:26 13,7 C 11,7 C 11,9 C 61 % 1007,8 hPa 0,0 l/m 12,6 km/h (3 Bft) O-SO 112 6,3 C 10,5 C 15,4 km/h (3 Bft)
19.05.2019 02:24 13,7 C 11,6 C 11,9 C 61 % 1007,8 hPa 0,0 l/m 10,6 km/h (2 Bft) O 90 6,3 C 11,4 C 32,6 km/h (5 Bft)
19.05.2019 02:22 13,5 C 11,6 C 11,9 C 61 % 1007,8 hPa 0,0 l/m 9,5 km/h (2 Bft) O-NO 67 6,1 C 11,7 C 24,5 km/h (4 Bft)
19.05.2019 02:20 13,4 C 10,6 C 11,9 C 62 % 1007,8 hPa 0,0 l/m 10,3 km/h (2 Bft) O-NO 67 6,3 C 11,2 C 34,2 km/h (5 Bft)
19.05.2019 02:18 13,3 C 10,2 C 12,0 C 62 % 1007,6 hPa 0,0 l/m 10,0 km/h (2 Bft) NW 315 6,2 C 11,2 C 13,9 km/h (3 Bft)
19.05.2019 02:16 13,4 C 10,4 C 12,0 C 62 % 1007,6 hPa 0,0 l/m 10,5 km/h (2 Bft) W 270 6,3 C 11,1 C 4,6 km/h (1 Bft)
19.05.2019 02:14 13,5 C 10,5 C 12,0 C 62 % 1007,6 hPa 0,0 l/m 12,2 km/h (2 Bft) O-NO 67 6,4 C 10,5 C 17,0 km/h (3 Bft)
19.05.2019 02:12 13,4 C 10,8 C 12,0 C 62 % 1007,6 hPa 0,0 l/m 12,2 km/h (2 Bft) O-SO 112 6,3 C 10,3 C 10,0 km/h (2 Bft)
19.05.2019 02:10 13,4 C 10,8 C 12,0 C 62 % 1007,6 hPa 0,0 l/m 11,9 km/h (2 Bft) S-SW 202 6,3 C 10,5 C 32,4 km/h (5 Bft)
19.05.2019 02:08 13,3 C 10,1 C 12,0 C 62 % 1007,6 hPa 0,0 l/m 10,8 km/h (2 Bft) S-SO 157 6,2 C 10,9 C 25,5 km/h (4 Bft)
19.05.2019 02:06 13,3 C 10,4 C 12,0 C 62 % 1007,6 hPa 0,0 l/m 9,5 km/h (2 Bft) NO 45 6,2 C 11,5 C 10,2 km/h (2 Bft)
19.05.2019 02:04 13,1 C 10,0 C 12,0 C 62 % 1007,6 hPa 0,0 l/m 9,0 km/h (2 Bft) S-SW 202 6,0 C 11,5 C 22,2 km/h (4 Bft)
19.05.2019 02:02 13,0 C 10,0 C 12,0 C 63 % 1007,6 hPa 0,0 l/m 10,6 km/h (2 Bft) O-NO 67 6,1 C 10,6 C 19,7 km/h (3 Bft)
19.05.2019 02:00 13,0 C 9,8 C 12,0 C 63 % 1007,6 hPa 0,0 l/m 10,0 km/h (2 Bft) NW 315 6,1 C 10,9 C 7,7 km/h (2 Bft)
19.05.2019 01:58 13,1 C 10,1 C 12,0 C 63 % 1008,1 hPa 0,0 l/m 11,9 km/h (2 Bft) O-NO 67 6,2 C 10,1 C 16,4 km/h (3 Bft)
19.05.2019 01:56 13,0 C 10,3 C 12,0 C 63 % 1008,1 hPa 0,0 l/m 12,2 km/h (2 Bft) O 90 6,1 C 9,9 C 9,7 km/h (2 Bft)
19.05.2019 01:54 13,1 C 10,6 C 12,0 C 63 % 1008,1 hPa 0,0 l/m 14,0 km/h (3 Bft) SO 135 6,2 C 9,3 C 36,3 km/h (5 Bft)
19.05.2019 01:52 13,1 C 10,4 C 12,0 C 63 % 1008,1 hPa 0,0 l/m 12,9 km/h (3 Bft) SW 225 6,2 C 9,7 C 24,5 km/h (4 Bft)
19.05.2019 01:50 13,3 C 10,9 C 12,0 C 63 % 1008,1 hPa 0,0 l/m 11,6 km/h (2 Bft) SO 135 6,4 C 10,5 C 17,6 km/h (3 Bft)
19.05.2019 01:48 13,0 C 10,8 C 12,0 C 64 % 1008,1 hPa 0,0 l/m 11,3 km/h (2 Bft) SW 225 6,4 C 10,3 C 26,3 km/h (4 Bft)
19.05.2019 01:46 13,0 C 10,9 C 12,0 C 64 % 1008,1 hPa 0,0 l/m 10,0 km/h (2 Bft) SO 135 6,4 C 10,9 C 15,6 km/h (3 Bft)
19.05.2019 01:44 12,7 C 10,0 C 12,1 C 66 % 1008,1 hPa 0,0 l/m 8,0 km/h (2 Bft) S-SO 157 6,5 C 11,7 C 25,7 km/h (4 Bft)
19.05.2019 01:42 12,1 C 9,1 C 12,1 C 66 % 1008,1 hPa 0,0 l/m 7,6 km/h (2 Bft) N-NW 337 5,9 C 11,3 C 13,7 km/h (3 Bft)
19.05.2019 01:40 12,4 C 9,4 C 12,1 C 66 % 1008,1 hPa 0,0 l/m 8,0 km/h (2 Bft) O 90 6,2 C 11,4 C 9,8 km/h (2 Bft)
19.05.2019 01:38 11,5 C 8,0 C 12,2 C 66 % 1008,0 hPa 0,0 l/m 6,4 km/h (2 Bft) S-SW 202 5,4 C 11,5 C 15,8 km/h (3 Bft)
19.05.2019 01:36 11,4 C 7,9 C 12,2 C 66 % 1008,0 hPa 0,0 l/m 6,3 km/h (2 Bft) N-NW 337 5,3 C 11,4 C 2,9 km/h (1 Bft)
19.05.2019 01:34 12,4 C 8,4 C 12,2 C 66 % 1008,0 hPa 0,0 l/m 6,8 km/h (2 Bft) W 270 6,2 C 12,1 C 0,0 km/h (0 Bft)
19.05.2019 01:32 12,1 C 8,3 C 12,2 C 67 % 1008,0 hPa 0,0 l/m 6,0 km/h (2 Bft) S-SO 157 6,2 C 12,1 C 24,1 km/h (4 Bft)
19.05.2019 01:30 11,8 C 7,5 C 12,2 C 67 % 1008,0 hPa 0,0 l/m 5,1 km/h (1 Bft) NW 315 5,9 C 11,8 C 10,6 km/h (2 Bft)
19.05.2019 01:28 12,0 C 7,8 C 12,2 C 67 % 1008,0 hPa 0,0 l/m 5,8 km/h (2 Bft) S-SW 202 6,1 C 12,0 C 2,7 km/h (1 Bft)
19.05.2019 01:26 11,7 C 8,3 C 12,2 C 68 % 1008,0 hPa 0,0 l/m 6,1 km/h (2 Bft) SW 225 6,0 C 11,7 C 4,6 km/h (1 Bft)
19.05.2019 01:24 11,1 C 7,7 C 12,2 C 68 % 1008,0 hPa 0,0 l/m 6,4 km/h (2 Bft) S 180 5,4 C 11,1 C 16,6 km/h (3 Bft)
19.05.2019 01:22 11,1 C 7,7 C 12,2 C 68 % 1008,0 hPa 0,0 l/m 6,6 km/h (2 Bft) W 270 5,4 C 11,0 C 4,8 km/h (1 Bft)
19.05.2019 01:20 11,5 C 8,3 C 12,2 C 68 % 1008,0 hPa 0,0 l/m 7,1 km/h (2 Bft) N 360 5,8 C 11,0 C 4,8 km/h (1 Bft)
19.05.2019 01:18 11,6 C 8,2 C 12,2 C 68 % 1008,2 hPa 0,0 l/m 7,4 km/h (2 Bft) S-SW 202 5,9 C 10,9 C 11,2 km/h (2 Bft)
19.05.2019 01:16 10,2 C 6,9 C 12,2 C 69 % 1008,2 hPa 0,0 l/m 7,2 km/h (2 Bft) W 270 4,8 C 9,6 C 10,4 km/h (2 Bft)
19.05.2019 01:14 10,1 C 7,2 C 12,2 C 68 % 1008,2 hPa 0,0 l/m 7,9 km/h (2 Bft) O-NO 67 4,5 C 9,0 C 9,8 km/h (2 Bft)
19.05.2019 01:12 10,1 C 7,7 C 12,2 C 68 % 1008,2 hPa 0,0 l/m 8,9 km/h (2 Bft) NO 45 4,5 C 8,4 C 12,9 km/h (3 Bft)
19.05.2019 01:10 10,8 C 7,9 C 12,2 C 67 % 1008,2 hPa 0,0 l/m 8,9 km/h (2 Bft) O-NO 67 4,9 C 9,1 C 3,7 km/h (1 Bft)
19.05.2019 01:08 10,9 C 8,0 C 12,3 C 67 % 1008,2 hPa 0,0 l/m 10,0 km/h (2 Bft) S-SO 157 5,0 C 8,6 C 9,1 km/h (2 Bft)
19.05.2019 01:06 11,4 C 8,4 C 12,3 C 67 % 1008,2 hPa 0,0 l/m 9,8 km/h (2 Bft) W-NW 292 5,5 C 9,3 C 12,6 km/h (3 Bft)
19.05.2019 01:04 11,0 C 8,8 C 12,3 C 67 % 1008,2 hPa 0,0 l/m 10,0 km/h (2 Bft) S-SO 157 5,1 C 8,7 C 29,4 km/h (5 Bft)
19.05.2019 01:02 11,3 C 8,7 C 12,3 C 67 % 1008,2 hPa 0,0 l/m 8,9 km/h (2 Bft) W-NW 292 5,4 C 9,7 C 12,0 km/h (2 Bft)
19.05.2019 01:00 11,6 C 8,0 C 12,3 C 67 % 1008,2 hPa 0,0 l/m 7,6 km/h (2 Bft) NO 45 5,7 C 10,8 C 15,6 km/h (3 Bft)
19.05.2019 00:58 10,9 C 8,5 C 12,3 C 67 % 1008,5 hPa 0,0 l/m 6,3 km/h (2 Bft) SW 225 5,0 C 10,9 C 11,4 km/h (2 Bft)
19.05.2019 00:56 11,9 C 8,9 C 12,3 C 67 % 1008,5 hPa 0,0 l/m 6,9 km/h (2 Bft) SW 225 6,0 C 11,6 C 6,8 km/h (2 Bft)
19.05.2019 00:54 12,1 C 7,9 C 12,3 C 67 % 1008,5 hPa 0,0 l/m 6,9 km/h (2 Bft) W-NW 292 6,2 C 11,8 C 21,8 km/h (4 Bft)
19.05.2019 00:52 10,8 C 7,1 C 12,3 C 67 % 1008,5 hPa 0,0 l/m 6,6 km/h (2 Bft) O-NO 67 4,9 C 10,7 C 15,3 km/h (3 Bft)
19.05.2019 00:50 10,8 C 7,4 C 12,3 C 67 % 1008,5 hPa 0,0 l/m 5,8 km/h (2 Bft) O-NO 67 4,9 C 10,8 C 4,1 km/h (1 Bft)
19.05.2019 00:48 10,7 C 7,4 C 12,3 C 67 % 1008,5 hPa 0,0 l/m 5,6 km/h (1 Bft) W 270 4,8 C 10,7 C 6,2 km/h (2 Bft)
19.05.2019 00:46 10,5 C 6,9 C 12,3 C 67 % 1008,5 hPa 0,0 l/m 5,5 km/h (1 Bft) W-NW 292 4,6 C 10,5 C 18,3 km/h (3 Bft)
19.05.2019 00:44 10,6 C 6,7 C 12,3 C 66 % 1008,5 hPa 0,0 l/m 4,2 km/h (1 Bft) W 270 4,5 C 10,6 C 9,7 km/h (2 Bft)
19.05.2019 00:42 10,8 C 6,6 C 12,4 C 66 % 1008,5 hPa 0,0 l/m 3,1 km/h (1 Bft) W-NW 292 4,7 C 10,8 C 7,5 km/h (2 Bft)
19.05.2019 00:40 11,1 C 6,8 C 12,4 C 66 % 1008,5 hPa 0,0 l/m 3,1 km/h (1 Bft) NW 315 5,0 C 11,1 C 0,0 km/h (0 Bft)
19.05.2019 00:38 11,3 C 6,9 C 12,4 C 65 % 1008,5 hPa 0,0 l/m 3,2 km/h (1 Bft) O-NO 67 5,0 C 11,3 C 11,2 km/h (2 Bft)
19.05.2019 00:36 11,2 C 6,6 C 12,4 C 65 % 1008,5 hPa 0,0 l/m 3,9 km/h (1 Bft) O-SO 112 4,9 C 11,2 C 13,3 km/h (3 Bft)
19.05.2019 00:34 11,6 C 6,7 C 12,3 C 65 % 1008,5 hPa 0,0 l/m 3,5 km/h (1 Bft) O-NO 67 5,2 C 11,6 C 3,7 km/h (1 Bft)
19.05.2019 00:32 11,4 C 6,9 C 12,3 C 65 % 1008,5 hPa 0,0 l/m 5,5 km/h (1 Bft) W-NW 292 5,1 C 11,4 C 3,3 km/h (1 Bft)
19.05.2019 00:30 11,3 C 7,5 C 12,3 C 65 % 1008,5 hPa 0,0 l/m 6,0 km/h (2 Bft) O-NO 67 5,0 C 11,3 C 6,4 km/h (2 Bft)
19.05.2019 00:28 11,5 C 7,9 C 12,3 C 64 % 1008,5 hPa 0,0 l/m 7,4 km/h (2 Bft) O-SO 112 4,9 C 10,8 C 6,6 km/h (2 Bft)
19.05.2019 00:26 11,7 C 8,5 C 12,3 C 63 % 1008,5 hPa 0,0 l/m 7,7 km/h (2 Bft) O-NO 67 4,9 C 10,8 C 8,3 km/h (2 Bft)
19.05.2019 00:24 12,3 C 9,1 C 12,3 C 63 % 1008,5 hPa 0,0 l/m 8,5 km/h (2 Bft) O-NO 67 5,5 C 11,0 C 8,1 km/h (2 Bft)
19.05.2019 00:22 12,4 C 9,3 C 12,3 C 63 % 1008,5 hPa 0,0 l/m 9,3 km/h (2 Bft) O-SO 112 5,6 C 10,6 C 13,7 km/h (3 Bft)
19.05.2019 00:20 12,5 C 9,6 C 12,3 C 63 % 1008,5 hPa 0,0 l/m 9,7 km/h (2 Bft) NW 315 5,7 C 10,5 C 7,7 km/h (2 Bft)
19.05.2019 00:18 11,6 C 8,4 C 12,4 C 63 % 1008,8 hPa 0,0 l/m 9,8 km/h (2 Bft) W-NW 292 4,8 C 9,5 C 10,4 km/h (2 Bft)
19.05.2019 00:16 11,6 C 8,3 C 12,4 C 63 % 1008,8 hPa 0,0 l/m 10,6 km/h (2 Bft) S-SW 202 4,8 C 9,0 C 4,6 km/h (1 Bft)
19.05.2019 00:14 12,0 C 9,1 C 12,4 C 63 % 1008,8 hPa 0,0 l/m 11,7 km/h (2 Bft) NW 315 5,2 C 9,0 C 24,5 km/h (4 Bft)
19.05.2019 00:12 13,4 C 10,7 C 12,4 C 63 % 1008,8 hPa 0,0 l/m 12,4 km/h (3 Bft) N-NO 22 6,5 C 10,3 C 19,3 km/h (3 Bft)
19.05.2019 00:10 13,4 C 10,7 C 12,4 C 63 % 1008,8 hPa 0,0 l/m 12,4 km/h (3 Bft) N-NO 22 6,5 C 10,3 C 19,3 km/h (3 Bft)
19.05.2019 00:08 13,4 C 10,7 C 12,4 C 63 % 1008,8 hPa 0,0 l/m 12,4 km/h (3 Bft) N-NO 22 6,5 C 10,3 C 19,3 km/h (3 Bft)
19.05.2019 00:06 13,4 C 10,7 C 12,4 C 63 % 1008,8 hPa 0,0 l/m 12,4 km/h (3 Bft) N-NO 22 6,5 C 10,3 C 19,3 km/h (3 Bft)
19.05.2019 00:04 13,4 C 10,7 C 12,4 C 63 % 1008,8 hPa 0,0 l/m 12,4 km/h (3 Bft) N-NO 22 6,5 C 10,3 C 19,3 km/h (3 Bft)
19.05.2019 00:02 13,3 C 10,8 C 12,4 C 63 % 1008,8 hPa 0,0 l/m 12,4 km/h (3 Bft) N-NO 22 6,4 C 10,1 C 19,3 km/h (3 Bft)
19.05.2019 00:00 13,3 C 11,1 C 12,4 C 63 % 1008,8 hPa 0,0 l/m 12,6 km/h (3 Bft) S-SW 202 6,4 C 10,1 C 7,5 km/h (2 Bft)
_ Min-Zeit 06:24 00:36 07:28 13:22 21:20 - 06:14 - - 03:16 01:12 00:40
Minimum _ 8,6 C 6,6 C 11,4 C 50 % 1005,1 hPa - 0,0 km/h (0 Bft) - - 3,3 C 8,4 C 0,0 km/h (0 Bft)
_ Max-Zeit 13:06 13:08 16:44 07:10 00:00 00:00 01:54 - - 19:02 13:14 01:54
Maximum _ 20,0 C 31,8 C 14,5 C 79 % 1008,8 hPa 0,0 l/m 14,0 km/h
SO (3 Bft)
- - 10,6 C 19,9 C 36,3 km/h
SO (5 Bft)
Durchschnitt _ 14,2 C 15,4 C 12,8 C 65 % 1006,7 hPa #0,0 l/m 4,2 km/h (1 Bft) O-NO - 7,6 C 13,9 C 6,5 km/h (2 Bft)